Observation data for Persimmon Gap on 12/08/2018      Previous  Date       Current Mesonet Observations  Soil Data  Daily Summary Page  Observations in Plain Language
KPG1 080600Z 05013KT 06/06 A3015 RMK A01 T00600059  RH  099%=      5-min Rain = 0
KPG1 080601Z 05014KT 06/06 A3015 RMK A01 T00600059  RH  099%=      5-min Rain = 0
KPG1 080602Z 03014KT 06/06 A3015 RMK A01 T00600058  RH  099%=      5-min Rain = 0
KPG1 080603Z 04013KT 06/06 A3015 RMK A01 T00600058  RH  099%=      5-min Rain = 0
KPG1 080604Z 04012KT 06/06 A3015 RMK A01 T00600058  RH  099%=      5-min Rain = 0
KPG1 080605Z 04014KT 06/06 A3015 RMK A01 T00600058  RH  099%=      5-min Rain = 0
KPG1 080606Z 03014KT 06/06 A3015 RMK A01 T00600058  RH  099%=      5-min Rain = 0
KPG1 080607Z 04014KT 06/06 A3015 RMK A01 T00600058  RH  099%=      5-min Rain = 0
KPG1 080608Z 04014KT 06/06 A3015 RMK A01 T00600059  RH  099%=      5-min Rain = 0
KPG1 080609Z 04015KT 06/06 A3015 RMK A01 T00590058  RH  099%=      5-min Rain = 0
KPG1 080610Z 04014KT 06/06 A3015 RMK A01 T00590058  RH  099%=      5-min Rain = 0
KPG1 080611Z 04015KT 06/06 A3015 RMK A01 T00590058  RH  099%=      5-min Rain = 0
KPG1 080612Z 04014KT 06/06 A3015 RMK A01 T00590058  RH  099%=      5-min Rain = 0
KPG1 080613Z 04014KT 06/06 A3015 RMK A01 T00590058  RH  099%=      5-min Rain = 0
KPG1 080614Z 06015KT 06/06 A3015 RMK A01 T00590058  RH  099%=      5-min Rain = 0
KPG1 080615Z 05015KT 06/06 A3015 RMK A01 T00590058  RH  099%=      5-min Rain = 0
KPG1 080616Z 05015KT 06/06 A3015 RMK A01 T00590058  RH  099%=      5-min Rain = 0
KPG1 080617Z 05015KT 06/06 A3015 RMK A01 T00590058  RH  099%=      5-min Rain = 0
KPG1 080618Z 05014KT 06/06 A3015 RMK A01 T00590058  RH  099%=      5-min Rain = 0
KPG1 080619Z 05014KT 06/06 A3015 RMK A01 T00590058  RH  099%=      5-min Rain = 0
KPG1 080620Z 06016KT 06/06 A3015 RMK A01 T00590058  RH  099%=      5-min Rain = 0
KPG1 080621Z 05015KT 06/06 A3015 RMK A01 T00580057  RH  099%=      5-min Rain = 0
KPG1 080622Z 05013KT 06/06 A3015 RMK A01 T00580057  RH  099%=      5-min Rain = 0
KPG1 080623Z 05013KT 06/06 A3015 RMK A01 T00580057  RH  099%=      5-min Rain = 0
KPG1 080624Z 05012KT 06/06 A3015 RMK A01 T00580057  RH  099%=      5-min Rain = 0
KPG1 080625Z 05013KT 06/06 A3015 RMK A01 T00580058  RH  099%=      5-min Rain = 0
KPG1 080626Z 06012KT 06/06 A3015 RMK A01 T00580057  RH  099%=      5-min Rain = 0
KPG1 080627Z 06011KT 06/06 A3015 RMK A01 T00580057  RH  099%=      5-min Rain = 0
KPG1 080628Z 05013KT 06/06 A3015 RMK A01 T00580057  RH  099%=      5-min Rain = 0
KPG1 080629Z 05014KT 06/06 A3015 RMK A01 T00580057  RH  099%=      5-min Rain = 0
KPG1 080630Z 05014KT 06/06 A3015 RMK A01 T00580057  RH  099%=      5-min Rain = 0
KPG1 080631Z 05014KT 06/06 A3015 RMK A01 T00580057  RH  099%=      5-min Rain = 0
KPG1 080632Z 05014KT 06/06 A3015 RMK A01 T00580057  RH  099%=      5-min Rain = 0
KPG1 080633Z 05014KT 06/06 A3015 RMK A01 T00580057  RH  099%=      5-min Rain = 0
KPG1 080634Z 05013KT 06/06 A3015 RMK A01 T00580057  RH  099%=      5-min Rain = 0
KPG1 080635Z 05013KT 06/06 A3015 RMK A01 T00580057  RH  099%=      5-min Rain = 0
KPG1 080636Z 05014KT 06/06 A3015 RMK A01 T00580057  RH  099%=      5-min Rain = 0
KPG1 080637Z 05012KT 06/06 A3015 RMK A01 T00580057  RH  099%=      5-min Rain = 0
KPG1 080638Z 05015KT 06/06 A3015 RMK A01 T00580057  RH  099%=      5-min Rain = 0
KPG1 080639Z 05013KT 06/06 A3015 RMK A01 T00580057  RH  099%=      5-min Rain = 0
KPG1 080640Z 05015KT 06/06 A3015 RMK A01 T00580057  RH  099%=      5-min Rain = 0
KPG1 080641Z 06013KT 06/06 A3015 RMK A01 T00580057  RH  099%=      5-min Rain = 0
KPG1 080642Z 06014KT 06/06 A3015 RMK A01 T00580057  RH  099%=      5-min Rain = 0
KPG1 080643Z 05014KT 06/06 A3015 RMK A01 T00580057  RH  099%=      5-min Rain = 0
KPG1 080644Z 05013KT 06/06 A3015 RMK A01 T00580057  RH  099%=      5-min Rain = 0
KPG1 080645Z 05013KT 06/06 A3015 RMK A01 T00580057  RH  099%=      5-min Rain = 0
KPG1 080646Z 05012KT 06/06 A3015 RMK A01 T00580057  RH  099%=      5-min Rain = 0
KPG1 080647Z 05013KT 06/06 A3015 RMK A01 T00580057  RH  099%=      5-min Rain = 0
KPG1 080648Z 05012KT 06/06 A3015 RMK A01 T00580057  RH  099%=      5-min Rain = 0
KPG1 080649Z 05014KT 06/06 A3015 RMK A01 T00580057  RH  099%=      5-min Rain = 0
KPG1 080650Z 06014KT 06/06 A3015 RMK A01 T00580057  RH  099%=      5-min Rain = 0
KPG1 080651Z 06013KT 06/06 A3015 RMK A01 T00580057  RH  099%=      5-min Rain = 0
KPG1 080652Z 05013KT 06/06 A3015 RMK A01 T00580057  RH  099%=      5-min Rain = 0
KPG1 080653Z 05012KT 06/06 A3015 RMK A01 T00580057  RH  099%=      5-min Rain = 0
KPG1 080654Z 05013KT 06/06 A3015 RMK A01 T00580057  RH  099%=      5-min Rain = 0
KPG1 080655Z 06014KT 06/06 A3015 RMK A01 T00580057  RH  099%=      5-min Rain = 0
KPG1 080656Z 05015KT 06/06 A3015 RMK A01 T00580057  RH  099%=      5-min Rain = 0
KPG1 080657Z 05015KT 06/06 A3015 RMK A01 T00580057  RH  099%=      5-min Rain = 0
KPG1 080658Z 05013KT 06/06 A3015 RMK A01 T00580057  RH  099%=      5-min Rain = 0
KPG1 080659Z 05013KT 06/06 A3015 RMK A01 T00580057  RH  099%=      5-min Rain = 0
KPG1 080700Z 06012KT 06/06 A3015 RMK A01 T00580057  RH  099%=      5-min Rain = 0
KPG1 080701Z 05015KT 06/06 A3015 RMK A01 T00580056  RH  099%=      5-min Rain = 0
KPG1 080702Z 05015KT 06/06 A3015 RMK A01 T00580056  RH  099%=      5-min Rain = 0
KPG1 080703Z 04014KT 06/06 A3015 RMK A01 T00570056  RH  099%=      5-min Rain = 0
KPG1 080704Z 05012KT 06/06 A3015 RMK A01 T00570056  RH  099%=      5-min Rain = 0
KPG1 080705Z 05012KT 06/06 A3014 RMK A01 T00570056  RH  099%=      5-min Rain = 0
KPG1 080706Z 04013KT 06/06 A3014 RMK A01 T00580057  RH  099%=      5-min Rain = 0
KPG1 080707Z 05014KT 06/06 A3014 RMK A01 T00580057  RH  099%=      5-min Rain = 0
KPG1 080708Z 05014KT 06/06 A3014 RMK A01 T00580056  RH  099%=      5-min Rain = 0
KPG1 080709Z 04011KT 06/06 A3014 RMK A01 T00580057  RH  099%=      5-min Rain = 0
KPG1 080710Z 05011KT 06/06 A3014 RMK A01 T00580057  RH  099%=      5-min Rain = 0
KPG1 080711Z 05013KT 06/06 A3014 RMK A01 T00580057  RH  099%=      5-min Rain = 0
KPG1 080712Z 04012KT 06/06 A3015 RMK A01 T00580056  RH  099%=      5-min Rain = 0
KPG1 080713Z 04011KT 06/06 A3015 RMK A01 T00580056  RH  099%=      5-min Rain = 0
KPG1 080714Z 04012KT 06/06 A3015 RMK A01 T00580056  RH  099%=      5-min Rain = 0
KPG1 080715Z 04013KT 06/06 A3015 RMK A01 T00580056  RH  099%=      5-min Rain = 0
KPG1 080716Z 03013KT 06/06 A3015 RMK A01 T00580056  RH  099%=      5-min Rain = 0
KPG1 080717Z 04012KT 06/06 A3015 RMK A01 T00580056  RH  099%=      5-min Rain = 0
KPG1 080718Z 04013KT 06/06 A3015 RMK A01 T00580056  RH  099%=      5-min Rain = 0
KPG1 080719Z 04012KT 06/06 A3015 RMK A01 T00580056  RH  099%=      5-min Rain = 0
KPG1 080720Z 04013KT 06/06 A3015 RMK A01 T00580056  RH  099%=      5-min Rain = 0
KPG1 080721Z 04012KT 06/06 A3015 RMK A01 T00580056  RH  099%=      5-min Rain = 0
KPG1 080722Z 03013KT 06/06 A3015 RMK A01 T00580056  RH  099%=      5-min Rain = 0
KPG1 080723Z 04013KT 06/06 A3015 RMK A01 T00580056  RH  099%=      5-min Rain = 0
KPG1 080724Z 04012KT 06/06 A3015 RMK A01 T00580056  RH  099%=      5-min Rain = 0
KPG1 080725Z 04013KT 06/06 A3014 RMK A01 T00570056  RH  099%=      5-min Rain = 0
KPG1 080726Z 05012KT 06/06 A3014 RMK A01 T00570056  RH  099%=      5-min Rain = 0
KPG1 080727Z 05013KT 06/06 A3014 RMK A01 T00570056  RH  099%=      5-min Rain = 0
KPG1 080728Z 05013KT 06/06 A3014 RMK A01 T00580056  RH  099%=      5-min Rain = 0
KPG1 080729Z 04015KT 06/06 A3014 RMK A01 T00580056  RH  099%=      5-min Rain = 0
KPG1 080730Z 04013KT 06/06 A3015 RMK A01 T00570056  RH  099%=      5-min Rain = 0
KPG1 080731Z 05013KT 06/06 A3015 RMK A01 T00570055  RH  099%=      5-min Rain = 0
KPG1 080732Z 04015KT 06/06 A3015 RMK A01 T00570055  RH  099%=      5-min Rain = 0
KPG1 080733Z 05015KT 06/06 A3014 RMK A01 T00570055  RH  099%=      5-min Rain = 0
KPG1 080734Z 05013KT 06/06 A3015 RMK A01 T00570055  RH  099%=      5-min Rain = 0
KPG1 080735Z 05012KT 06/06 A3015 RMK A01 T00570055  RH  099%=      5-min Rain = 0
KPG1 080736Z 04011KT 06/06 A3015 RMK A01 T00570055  RH  099%=      5-min Rain = 0
KPG1 080737Z 04011KT 06/06 A3015 RMK A01 T00570055  RH  099%=      5-min Rain = 0
KPG1 080738Z 04011KT 06/06 A3015 RMK A01 T00570055  RH  099%=      5-min Rain = 0
KPG1 080739Z 04010KT 06/06 A3015 RMK A01 T00570055  RH  099%=      5-min Rain = 0
KPG1 080740Z 05011KT 06/06 A3015 RMK A01 T00570055  RH  099%=      5-min Rain = 0
KPG1 080741Z 04013KT 06/06 A3015 RMK A01 T00580056  RH  099%=      5-min Rain = 0
KPG1 080742Z 04012KT 06/06 A3015 RMK A01 T00570055  RH  099%=      5-min Rain = 0
KPG1 080743Z 05012KT 06/06 A3015 RMK A01 T00570055  RH  099%=      5-min Rain = 0
KPG1 080744Z 04011KT 06/06 A3015 RMK A01 T00570055  RH  099%=      5-min Rain = 0
KPG1 080745Z 04011KT 06/06 A3015 RMK A01 T00570055  RH  099%=      5-min Rain = 0
KPG1 080746Z 05011KT 06/06 A3015 RMK A01 T00580056  RH  099%=      5-min Rain = 0
KPG1 080747Z 05013KT 06/06 A3015 RMK A01 T00570056  RH  099%=      5-min Rain = 0
KPG1 080748Z 05014KT 06/06 A3015 RMK A01 T00580056  RH  099%=      5-min Rain = 0
KPG1 080749Z 05013KT 06/06 A3015 RMK A01 T00570055  RH  099%=      5-min Rain = 0
KPG1 080750Z 05014KT 06/06 A3015 RMK A01 T00570055  RH  099%=      5-min Rain = 0
KPG1 080751Z 05014KT 06/06 A3015 RMK A01 T00570055  RH  099%=      5-min Rain = 0
KPG1 080752Z 05012KT 06/06 A3015 RMK A01 T00570055  RH  099%=      5-min Rain = 0
KPG1 080753Z 05013KT 06/06 A3015 RMK A01 T00570055  RH  099%=      5-min Rain = 0
KPG1 080754Z 05012KT 06/06 A3015 RMK A01 T00570055  RH  099%=      5-min Rain = 0
KPG1 080755Z 05012KT 06/06 A3015 RMK A01 T00580055  RH  099%=      5-min Rain = 0
KPG1 080756Z 05013KT 06/06 A3015 RMK A01 T00570055  RH  098%=      5-min Rain = 0
KPG1 080757Z 05013KT 06/06 A3015 RMK A01 T00570055  RH  098%=      5-min Rain = 0
KPG1 080758Z 04010KT 06/06 A3015 RMK A01 T00580055  RH  098%=      5-min Rain = 0
KPG1 080759Z 05011KT 06/06 A3015 RMK A01 T00580055  RH  098%=      5-min Rain = 0
KPG1 080800Z 04010KT 06/06 A3015 RMK A01 T00580056  RH  099%=      5-min Rain = 0
KPG1 080801Z 03012KT 06/06 A3015 RMK A01 T00580056  RH  099%=      5-min Rain = 0
KPG1 080802Z 03013KT 06/06 A3015 RMK A01 T00580056  RH  099%=      5-min Rain = 0
KPG1 080803Z 03013KT 06/06 A3015 RMK A01 T00580056  RH  099%=      5-min Rain = 0
KPG1 080804Z 03013KT 06/06 A3015 RMK A01 T00580056  RH  099%=      5-min Rain = 0
KPG1 080805Z 03012KT 06/06 A3015 RMK A01 T00580056  RH  099%=      5-min Rain = 0
KPG1 080806Z 04012KT 06/06 A3015 RMK A01 T00570055  RH  099%=      5-min Rain = 0
KPG1 080807Z 03012KT 06/06 A3015 RMK A01 T00570055  RH  099%=      5-min Rain = 0
KPG1 080808Z 04012KT 06/06 A3015 RMK A01 T00570055  RH  099%=      5-min Rain = 0
KPG1 080809Z 04013KT 06/06 A3015 RMK A01 T00570055  RH  099%=      5-min Rain = 0
KPG1 080810Z 04014KT 06/06 A3015 RMK A01 T00570055  RH  099%=      5-min Rain = 0
KPG1 080811Z 04014KT 06/06 A3015 RMK A01 T00570055  RH  099%=      5-min Rain = 0
KPG1 080812Z 04015KT 06/06 A3015 RMK A01 T00580055  RH  099%=      5-min Rain = 0
KPG1 080813Z 04014KT 06/06 A3015 RMK A01 T00570055  RH  099%=      5-min Rain = 0
KPG1 080814Z 03013KT 06/06 A3015 RMK A01 T00570055  RH  099%=      5-min Rain = 0
KPG1 080815Z 03014KT 06/06 A3015 RMK A01 T00570055  RH  099%=      5-min Rain = 0
KPG1 080816Z 03013KT 06/06 A3015 RMK A01 T00570055  RH  099%=      5-min Rain = 0
KPG1 080817Z 04012KT 06/06 A3015 RMK A01 T00570055  RH  099%=      5-min Rain = 0
KPG1 080818Z 04012KT 06/06 A3014 RMK A01 T00570055  RH  099%=      5-min Rain = 0
KPG1 080819Z 04013KT 06/06 A3014 RMK A01 T00570055  RH  099%=      5-min Rain = 0
KPG1 080820Z 04013KT 06/06 A3014 RMK A01 T00570055  RH  099%=      5-min Rain = 0
KPG1 080821Z 03014KT 06/06 A3014 RMK A01 T00570055  RH  099%=      5-min Rain = 0
KPG1 080822Z 03014KT 06/06 A3014 RMK A01 T00570056  RH  099%=      5-min Rain = 0
KPG1 080823Z 03013KT 06/06 A3014 RMK A01 T00570055  RH  099%=      5-min Rain = 0
KPG1 080824Z 04013KT 06/06 A3014 RMK A01 T00570055  RH  099%=      5-min Rain = 0
KPG1 080825Z 04013KT 06/06 A3014 RMK A01 T00580056  RH  099%=      5-min Rain = 0
KPG1 080826Z 03012KT 06/06 A3014 RMK A01 T00570055  RH  099%=      5-min Rain = 0
KPG1 080827Z 03012KT 06/06 A3015 RMK A01 T00570056  RH  099%=      5-min Rain = 0
KPG1 080828Z 03011KT 06/06 A3015 RMK A01 T00570056  RH  099%=      5-min Rain = 0
KPG1 080829Z 03013KT 06/06 A3015 RMK A01 T00570056  RH  099%=      5-min Rain = 0
KPG1 080830Z 04012KT 06/06 A3015 RMK A01 T00570056  RH  099%=      5-min Rain = 0
KPG1 080831Z 04010KT 06/06 A3015 RMK A01 T00570056  RH  099%=      5-min Rain = 0
KPG1 080832Z 03011KT 06/06 A3014 RMK A01 T00570056  RH  099%=      5-min Rain = 0
KPG1 080833Z 05011KT 06/06 A3015 RMK A01 T00570056  RH  099%=      5-min Rain = 0
KPG1 080834Z 04012KT 06/06 A3015 RMK A01 T00580056  RH  099%=      5-min Rain = 0
KPG1 080835Z 04010KT 06/06 A3015 RMK A01 T00580056  RH  099%=      5-min Rain = 0
KPG1 080836Z 04012KT 06/06 A3015 RMK A01 T00580056  RH  099%=      5-min Rain = 0
KPG1 080837Z 03013KT 06/06 A3015 RMK A01 T00580056  RH  099%=      5-min Rain = 0
KPG1 080838Z 03014KT 06/06 A3015 RMK A01 T00580056  RH  099%=      5-min Rain = 0
KPG1 080839Z 03012KT 06/06 A3015 RMK A01 T00580056  RH  099%=      5-min Rain = 0
KPG1 080840Z 04014KT 06/06 A3015 RMK A01 T00580056  RH  099%=      5-min Rain = 0
KPG1 080841Z 03012KT 06/06 A3015 RMK A01 T00570056  RH  099%=      5-min Rain = 0
KPG1 080842Z 03013KT 06/06 A3015 RMK A01 T00570056  RH  099%=      5-min Rain = 0
KPG1 080843Z 03013KT 06/06 A3015 RMK A01 T00570056  RH  099%=      5-min Rain = 0
KPG1 080844Z 03012KT 06/06 A3015 RMK A01 T00580056  RH  099%=      5-min Rain = 0
KPG1 080845Z 03013KT 06/06 A3015 RMK A01 T00580056  RH  099%=      5-min Rain = 0
KPG1 080846Z 03013KT 06/06 A3015 RMK A01 T00580056  RH  099%=      5-min Rain = 0
KPG1 080847Z 03013KT 06/06 A3015 RMK A01 T00580056  RH  099%=      5-min Rain = 0
KPG1 080848Z 03013KT 06/06 A3015 RMK A01 T00580056  RH  099%=      5-min Rain = 0
KPG1 080849Z 03013KT 06/06 A3015 RMK A01 T00580056  RH  099%=      5-min Rain = 0
KPG1 080850Z 02012KT 06/06 A3015 RMK A01 T00580056  RH  099%=      5-min Rain = 0
KPG1 080851Z 03013KT 06/06 A3015 RMK A01 T00580056  RH  099%=      5-min Rain = 0
KPG1 080852Z 03012KT 06/06 A3015 RMK A01 T00580056  RH  099%=      5-min Rain = 0
KPG1 080853Z 03012KT 06/06 A3015 RMK A01 T00580056  RH  099%=      5-min Rain = 0
KPG1 080854Z 03013KT 06/06 A3015 RMK A01 T00580056  RH  099%=      5-min Rain = 0
KPG1 080855Z 03012KT 06/06 A3015 RMK A01 T00580056  RH  099%=      5-min Rain = 0
KPG1 080856Z 03012KT 06/06 A3015 RMK A01 T00580056  RH  099%=      5-min Rain = 0
KPG1 080857Z 03013KT 06/06 A3015 RMK A01 T00580056  RH  099%=      5-min Rain = 0
KPG1 080858Z 04012KT 06/06 A3015 RMK A01 T00580056  RH  099%=      5-min Rain = 0
KPG1 080859Z 03011KT 06/06 A3015 RMK A01 T00580056  RH  099%=      5-min Rain = 0
KPG1 080900Z 04011KT 06/06 A3015 RMK A01 T00580056  RH  099%=      5-min Rain = 0
KPG1 080901Z 04010KT 06/06 A3015 RMK A01 T00580056  RH  099%=      5-min Rain = 0
KPG1 080902Z 03013KT 06/06 A3015 RMK A01 T00580057  RH  099%=      5-min Rain = 0
KPG1 080903Z 03012KT 06/06 A3015 RMK A01 T00580057  RH  099%=      5-min Rain = 0
KPG1 080904Z 03012KT 06/06 A3015 RMK A01 T00580057  RH  099%=      5-min Rain = 0
KPG1 080905Z 04013KT 06/06 A3015 RMK A01 T00580057  RH  099%=      5-min Rain = 0
KPG1 080906Z 03012KT 06/06 A3015 RMK A01 T00580057  RH  099%=      5-min Rain = 0
KPG1 080907Z 03010KT 06/06 A3015 RMK A01 T00580057  RH  099%=      5-min Rain = 0
KPG1 080908Z 03011KT 06/06 A3015 RMK A01 T00580057  RH  099%=      5-min Rain = 0
KPG1 080909Z 03012KT 06/06 A3015 RMK A01 T00580057  RH  099%=      5-min Rain = 0
KPG1 080910Z 04011KT 06/06 A3015 RMK A01 T00580057  RH  099%=      5-min Rain = 0
KPG1 080911Z 03010KT 06/06 A3015 RMK A01 T00580057  RH  099%=      5-min Rain = 0
KPG1 080912Z 03009KT 06/06 A3015 RMK A01 T00580057  RH  099%=      5-min Rain = 0
KPG1 080913Z 03010KT 06/06 A3015 RMK A01 T00580057  RH  099%=      5-min Rain = 0
KPG1 080914Z 03011KT 06/06 A3015 RMK A01 T00580057  RH  099%=      5-min Rain = 0
KPG1 080915Z 05011KT 06/06 A3015 RMK A01 T00580056  RH  099%=      5-min Rain = 0
KPG1 080916Z 05009KT 06/06 A3015 RMK A01 T00580056  RH  099%=      5-min Rain = 0
KPG1 080917Z 04010KT 06/06 A3015 RMK A01 T00580056  RH  099%=      5-min Rain = 0
KPG1 080918Z 03011KT 06/06 A3015 RMK A01 T00590057  RH  099%=      5-min Rain = 0
KPG1 080919Z 04011KT 06/06 A3015 RMK A01 T00580056  RH  099%=      5-min Rain = 0
KPG1 080920Z 03011KT 06/06 A3015 RMK A01 T00580056  RH  099%=      5-min Rain = 0
KPG1 080921Z 03012KT 06/06 A3015 RMK A01 T00580056  RH  099%=      5-min Rain = 0
KPG1 080922Z 03011KT 06/06 A3015 RMK A01 T00580056  RH  099%=      5-min Rain = 0
KPG1 080923Z 03012KT 06/06 A3015 RMK A01 T00580056  RH  099%=      5-min Rain = 0
KPG1 080924Z 03012KT 06/06 A3015 RMK A01 T00590056  RH  099%=      5-min Rain = 0
KPG1 080925Z 03012KT 06/06 A3015 RMK A01 T00580056  RH  099%=      5-min Rain = 0
KPG1 080926Z 03012KT 06/06 A3015 RMK A01 T00580056  RH  099%=      5-min Rain = 0
KPG1 080927Z 03012KT 06/06 A3015 RMK A01 T00580056  RH  099%=      5-min Rain = 0
KPG1 080928Z 03010KT 06/06 A3015 RMK A01 T00580056  RH  098%=      5-min Rain = 0
KPG1 080929Z 03011KT 06/06 A3015 RMK A01 T00580056  RH  098%=      5-min Rain = 0
KPG1 080930Z 03012KT 06/06 A3015 RMK A01 T00580056  RH  098%=      5-min Rain = 0
KPG1 080931Z 03013KT 06/06 A3015 RMK A01 T00580056  RH  098%=      5-min Rain = 0
KPG1 080932Z 03013KT 06/06 A3015 RMK A01 T00580056  RH  098%=      5-min Rain = 0
KPG1 080933Z 03012KT 06/06 A3015 RMK A01 T00580056  RH  098%=      5-min Rain = 0
KPG1 080934Z 03012KT 06/06 A3015 RMK A01 T00580056  RH  098%=      5-min Rain = 0
KPG1 080935Z 03012KT 06/06 A3015 RMK A01 T00580056  RH  098%=      5-min Rain = 0
KPG1 080936Z 04013KT 06/06 A3015 RMK A01 T00580056  RH  098%=      5-min Rain = 0
KPG1 080937Z 04013KT 06/06 A3015 RMK A01 T00580056  RH  098%=      5-min Rain = 0
KPG1 080938Z 04011KT 06/06 A3015 RMK A01 T00580056  RH  098%=      5-min Rain = 0
KPG1 080939Z 03010KT 06/06 A3015 RMK A01 T00580056  RH  098%=      5-min Rain = 0
KPG1 080940Z 04012KT 06/06 A3015 RMK A01 T00580056  RH  098%=      5-min Rain = 0
KPG1 080941Z 04013KT 06/06 A3015 RMK A01 T00580056  RH  098%=      5-min Rain = 0
KPG1 080942Z 04013KT 06/06 A3015 RMK A01 T00580056  RH  098%=      5-min Rain = 0
KPG1 080943Z 04011KT 06/06 A3015 RMK A01 T00580056  RH  098%=      5-min Rain = 0
KPG1 080944Z 04013KT 06/06 A3015 RMK A01 T00580055  RH  098%=      5-min Rain = 0
KPG1 080945Z 04012KT 06/06 A3015 RMK A01 T00580056  RH  098%=      5-min Rain = 0
KPG1 080946Z 03010KT 06/06 A3015 RMK A01 T00580055  RH  098%=      5-min Rain = 0
KPG1 080947Z 03012KT 06/06 A3015 RMK A01 T00590056  RH  098%=      5-min Rain = 0
KPG1 080948Z 03011KT 06/06 A3015 RMK A01 T00590056  RH  098%=      5-min Rain = 0
KPG1 080949Z 03012KT 06/06 A3015 RMK A01 T00590056  RH  098%=      5-min Rain = 0
KPG1 080950Z 04011KT 06/06 A3015 RMK A01 T00590056  RH  098%=      5-min Rain = 0
KPG1 080951Z 03012KT 06/06 A3015 RMK A01 T00590056  RH  098%=      5-min Rain = 0
KPG1 080952Z 04013KT 06/06 A3015 RMK A01 T00590056  RH  098%=      5-min Rain = 0
KPG1 080953Z 04012KT 06/06 A3015 RMK A01 T00590056  RH  098%=      5-min Rain = 0
KPG1 080954Z 04013KT 06/06 A3015 RMK A01 T00590056  RH  098%=      5-min Rain = 0
KPG1 080955Z 04011KT 06/06 A3015 RMK A01 T00590056  RH  098%=      5-min Rain = 0
KPG1 080956Z 04012KT 06/06 A3015 RMK A01 T00590056  RH  098%=      5-min Rain = 0
KPG1 080957Z 04011KT 06/06 A3015 RMK A01 T00590056  RH  098%=      5-min Rain = 0
KPG1 080958Z 04009KT 06/06 A3015 RMK A01 T00590056  RH  098%=      5-min Rain = 0
KPG1 080959Z 04008KT 06/06 A3015 RMK A01 T00590056  RH  098%=      5-min Rain = 0
KPG1 081000Z 03009KT 06/06 A3015 RMK A01 T00590056  RH  098%=      5-min Rain = 0
KPG1 081001Z 04011KT 06/06 A3015 RMK A01 T00590056  RH  098%=      5-min Rain = 0
KPG1 081002Z 04011KT 06/06 A3015 RMK A01 T00590057  RH  099%=      5-min Rain = 0
KPG1 081003Z 04012KT 06/06 A3016 RMK A01 T00590057  RH  099%=      5-min Rain = 0
KPG1 081004Z 04011KT 06/06 A3016 RMK A01 T00590056  RH  098%=      5-min Rain = 0
KPG1 081005Z 04011KT 06/06 A3015 RMK A01 T00590057  RH  098%=      5-min Rain = 0
KPG1 081006Z 04011KT 06/06 A3015 RMK A01 T00580056  RH  098%=      5-min Rain = 0
KPG1 081007Z 05012KT 06/06 A3015 RMK A01 T00580056  RH  099%=      5-min Rain = 0
KPG1 081008Z 04011KT 06/06 A3015 RMK A01 T00580056  RH  098%=      5-min Rain = 0
KPG1 081009Z 03011KT 06/06 A3015 RMK A01 T00580056  RH  098%=      5-min Rain = 0
KPG1 081010Z 03011KT 06/06 A3015 RMK A01 T00580056  RH  098%=      5-min Rain = 0
KPG1 081011Z 04010KT 06/06 A3015 RMK A01 T00580056  RH  098%=      5-min Rain = 0
KPG1 081012Z 03011KT 06/06 A3015 RMK A01 T00580056  RH  098%=      5-min Rain = 0
KPG1 081013Z 03011KT 06/06 A3015 RMK A01 T00580056  RH  098%=      5-min Rain = 0
KPG1 081014Z 03012KT 06/06 A3015 RMK A01 T00580056  RH  098%=      5-min Rain = 0
KPG1 081015Z 03011KT 06/06 A3015 RMK A01 T00580056  RH  098%=      5-min Rain = 0
KPG1 081016Z 03012KT 06/06 A3015 RMK A01 T00580056  RH  098%=      5-min Rain = 0
KPG1 081017Z 03011KT 06/06 A3015 RMK A01 T00590057  RH  098%=      5-min Rain = 0
KPG1 081018Z 04011KT 06/06 A3015 RMK A01 T00590057  RH  098%=      5-min Rain = 0
KPG1 081019Z 03010KT 06/06 A3015 RMK A01 T00590056  RH  098%=      5-min Rain = 0
KPG1 081020Z 04010KT 06/06 A3015 RMK A01 T00590057  RH  098%=      5-min Rain = 0
KPG1 081021Z 03011KT 06/06 A3016 RMK A01 T00590057  RH  098%=      5-min Rain = 0
KPG1 081022Z 03011KT 06/06 A3016 RMK A01 T00590057  RH  098%=      5-min Rain = 0
KPG1 081023Z 03010KT 06/06 A3016 RMK A01 T00590057  RH  098%=      5-min Rain = 0
KPG1 081024Z 03009KT 06/06 A3016 RMK A01 T00590057  RH  098%=      5-min Rain = 0
KPG1 081025Z 03009KT 06/06 A3016 RMK A01 T00590057  RH  098%=      5-min Rain = 0
KPG1 081026Z 03010KT 06/06 A3016 RMK A01 T00590057  RH  098%=      5-min Rain = 0
KPG1 081027Z 03009KT 06/06 A3016 RMK A01 T00590057  RH  098%=      5-min Rain = 0
KPG1 081028Z 03009KT 06/06 A3016 RMK A01 T00590057  RH  098%=      5-min Rain = 0
KPG1 081029Z 03009KT 06/06 A3016 RMK A01 T00590057  RH  098%=      5-min Rain = 0
KPG1 081030Z 04010KT 06/06 A3016 RMK A01 T00590057  RH  099%=      5-min Rain = 0
KPG1 081031Z 04011KT 06/06 A3016 RMK A01 T00590057  RH  099%=      5-min Rain = 0
KPG1 081032Z 03011KT 06/06 A3016 RMK A01 T00590057  RH  099%=      5-min Rain = 0
KPG1 081033Z 03010KT 06/06 A3016 RMK A01 T00590057  RH  099%=      5-min Rain = 0
KPG1 081034Z 04009KT 06/06 A3016 RMK A01 T00590057  RH  098%=      5-min Rain = 0
KPG1 081035Z 03009KT 06/06 A3016 RMK A01 T00590057  RH  099%=      5-min Rain = 0
KPG1 081036Z 03010KT 06/06 A3016 RMK A01 T00600057  RH  099%=      5-min Rain = 0
KPG1 081037Z 03008KT 06/06 A3016 RMK A01 T00600057  RH  099%=      5-min Rain = 0
KPG1 081038Z 02011KT 06/06 A3016 RMK A01 T00600058  RH  099%=      5-min Rain = 0
KPG1 081039Z 03009KT 06/06 A3016 RMK A01 T00600057  RH  099%=      5-min Rain = 0
KPG1 081040Z 03010KT 06/06 A3016 RMK A01 T00600057  RH  099%=      5-min Rain = 0
KPG1 081041Z 04010KT 06/06 A3016 RMK A01 T00600058  RH  099%=      5-min Rain = 0
KPG1 081042Z 03010KT 06/06 A3016 RMK A01 T00590057  RH  099%=      5-min Rain = 0
KPG1 081043Z 03009KT 06/06 A3016 RMK A01 T00600057  RH  099%=      5-min Rain = 0
KPG1 081044Z 04010KT 06/06 A3016 RMK A01 T00600058  RH  099%=      5-min Rain = 0
KPG1 081045Z 03009KT 06/06 A3016 RMK A01 T00600057  RH  099%=      5-min Rain = 0
KPG1 081046Z 02010KT 06/06 A3016 RMK A01 T00600057  RH  099%=      5-min Rain = 0
KPG1 081047Z 03010KT 06/06 A3016 RMK A01 T00600058  RH  099%=      5-min Rain = 0
KPG1 081048Z 04010KT 06/06 A3016 RMK A01 T00600058  RH  099%=      5-min Rain = 0
KPG1 081049Z 03010KT 06/06 A3016 RMK A01 T00600058  RH  099%=      5-min Rain = 0
KPG1 081050Z 04010KT 06/06 A3015 RMK A01 T00600057  RH  099%=      5-min Rain = 0
KPG1 081051Z 03009KT 06/06 A3015 RMK A01 T00600058  RH  099%=      5-min Rain = 0
KPG1 081052Z 03010KT 06/06 A3015 RMK A01 T00600058  RH  099%=      5-min Rain = 0
KPG1 081053Z 03010KT 06/06 A3015 RMK A01 T00600058  RH  099%=      5-min Rain = 0
KPG1 081054Z 03012KT 06/06 A3015 RMK A01 T00600058  RH  099%=      5-min Rain = 0
KPG1 081055Z 03011KT 06/06 A3016 RMK A01 T00600058  RH  099%=      5-min Rain = 0
KPG1 081056Z 03011KT 06/06 A3016 RMK A01 T00600058  RH  098%=      5-min Rain = 0
KPG1 081057Z 03011KT 06/06 A3016 RMK A01 T00590057  RH  098%=      5-min Rain = 0
KPG1 081058Z 03011KT 06/06 A3016 RMK A01 T00590057  RH  098%=      5-min Rain = 0
KPG1 081059Z 03011KT 06/06 A3016 RMK A01 T00590057  RH  098%=      5-min Rain = 0
KPG1 081100Z 03011KT 06/06 A3016 RMK A01 T00590057  RH  098%=      5-min Rain = 0
KPG1 081101Z 02011KT 06/06 A3016 RMK A01 T00590057  RH  098%=      5-min Rain = 0
KPG1 081102Z 02010KT 06/06 A3016 RMK A01 T00590057  RH  098%=      5-min Rain = 0
KPG1 081103Z 02011KT 06/06 A3016 RMK A01 T00590056  RH  098%=      5-min Rain = 0
KPG1 081104Z 03010KT 06/06 A3016 RMK A01 T00590056  RH  098%=      5-min Rain = 0
KPG1 081105Z 03011KT 06/06 A3016 RMK A01 T00590056  RH  098%=      5-min Rain = 0
KPG1 081106Z 03009KT 06/06 A3016 RMK A01 T00590056  RH  098%=      5-min Rain = 0
KPG1 081107Z 03011KT 06/06 A3016 RMK A01 T00590057  RH  098%=      5-min Rain = 0
KPG1 081108Z 05010KT 06/06 A3016 RMK A01 T00590056  RH  098%=      5-min Rain = 0
KPG1 081109Z 04011KT 06/06 A3016 RMK A01 T00590056  RH  098%=      5-min Rain = 0
KPG1 081110Z 03010KT 06/06 A3016 RMK A01 T00590056  RH  098%=      5-min Rain = 0
KPG1 081111Z 03010KT 06/06 A3016 RMK A01 T00590056  RH  098%=      5-min Rain = 0
KPG1 081112Z 04011KT 06/06 A3016 RMK A01 T00590056  RH  098%=      5-min Rain = 0
KPG1 081113Z 03010KT 06/06 A3016 RMK A01 T00590056  RH  098%=      5-min Rain = 0
KPG1 081114Z 04010KT 06/06 A3016 RMK A01 T00590056  RH  098%=      5-min Rain = 0
KPG1 081115Z 04012KT 06/06 A3016 RMK A01 T00590056  RH  098%=      5-min Rain = 0
KPG1 081116Z 03011KT 06/06 A3016 RMK A01 T00590056  RH  098%=      5-min Rain = 0
KPG1 081117Z 04011KT 06/06 A3016 RMK A01 T00590056  RH  098%=      5-min Rain = 0
KPG1 081118Z 04011KT 06/06 A3016 RMK A01 T00590056  RH  098%=      5-min Rain = 0
KPG1 081119Z 04010KT 06/06 A3016 RMK A01 T00590056  RH  098%=      5-min Rain = 0
KPG1 081120Z 04009KT 06/06 A3016 RMK A01 T00590056  RH  098%=      5-min Rain = 0
KPG1 081121Z 04011KT 06/06 A3016 RMK A01 T00590056  RH  098%=      5-min Rain = 0
KPG1 081122Z 03011KT 06/06 A3016 RMK A01 T00590057  RH  098%=      5-min Rain = 0
KPG1 081123Z 04010KT 06/06 A3016 RMK A01 T00590056  RH  098%=      5-min Rain = 0
KPG1 081124Z 04009KT 06/06 A3016 RMK A01 T00590057  RH  098%=      5-min Rain = 0
KPG1 081125Z 04008KT 06/06 A3016 RMK A01 T00590057  RH  098%=      5-min Rain = 0
KPG1 081126Z 04008KT 06/06 A3016 RMK A01 T00590057  RH  098%=      5-min Rain = 0
KPG1 081127Z 04009KT 06/06 A3016 RMK A01 T00590057  RH  098%=      5-min Rain = 0
KPG1 081128Z 04008KT 06/06 A3016 RMK A01 T00590057  RH  098%=      5-min Rain = 0
KPG1 081129Z 04007KT 06/06 A3016 RMK A01 T00590057  RH  099%=      5-min Rain = 0
KPG1 081130Z 04008KT 06/06 A3016 RMK A01 T00590057  RH  099%=      5-min Rain = 0
KPG1 081131Z 05008KT 06/06 A3016 RMK A01 T00590057  RH  099%=      5-min Rain = 0
KPG1 081132Z 06010KT 06/06 A3016 RMK A01 T00600058  RH  099%=      5-min Rain = 0
KPG1 081133Z 05009KT 06/06 A3016 RMK A01 T00600058  RH  099%=      5-min Rain = 0
KPG1 081134Z 06011KT 06/06 A3016 RMK A01 T00590057  RH  099%=      5-min Rain = 0
KPG1 081135Z 04011KT 06/06 A3016 RMK A01 T00590057  RH  099%=      5-min Rain = 0
KPG1 081136Z 05009KT 06/06 A3016 RMK A01 T00590057  RH  099%=      5-min Rain = 0
KPG1 081137Z 05010KT 06/06 A3016 RMK A01 T00590057  RH  099%=      5-min Rain = 0
KPG1 081138Z 04009KT 06/06 A3016 RMK A01 T00590057  RH  099%=      5-min Rain = 0
KPG1 081139Z 05009KT 06/06 A3017 RMK A01 T00590057  RH  099%=      5-min Rain = 0
KPG1 081140Z 04009KT 06/06 A3017 RMK A01 T00590057  RH  099%=      5-min Rain = 0
KPG1 081141Z 05008KT 06/06 A3017 RMK A01 T00590057  RH  099%=      5-min Rain = 0
KPG1 081142Z 04009KT 06/06 A3017 RMK A01 T00590057  RH  099%=      5-min Rain = 0
KPG1 081143Z 04009KT 06/06 A3017 RMK A01 T00590058  RH  099%=      5-min Rain = 0
KPG1 081144Z 04009KT 06/06 A3017 RMK A01 T00590057  RH  099%=      5-min Rain = 0
KPG1 081145Z 03011KT 06/06 A3017 RMK A01 T00590057  RH  099%=      5-min Rain = 0.01
KPG1 081146Z 03010KT 06/06 A3017 RMK A01 T00590057  RH  099%=      5-min Rain = 0
KPG1 081147Z 04011KT 06/06 A3017 RMK A01 T00590058  RH  099%=      5-min Rain = 0
KPG1 081148Z 04011KT 06/06 A3017 RMK A01 T00590057  RH  099%=      5-min Rain = 0
KPG1 081149Z 04011KT 06/06 A3017 RMK A01 T00590058  RH  099%=      5-min Rain = 0
KPG1 081150Z 04011KT 06/06 A3017 RMK A01 T00590057  RH  099%=      5-min Rain = 0
KPG1 081151Z 04010KT 06/06 A3017 RMK A01 T00590058  RH  099%=      5-min Rain = 0
KPG1 081152Z 04010KT 06/06 A3017 RMK A01 T00590057  RH  099%=      5-min Rain = 0
KPG1 081153Z 04010KT 06/06 A3017 RMK A01 T00590057  RH  099%=      5-min Rain = 0
KPG1 081154Z 04010KT 06/06 A3017 RMK A01 T00590057  RH  099%=      5-min Rain = 0
KPG1 081155Z 04009KT 06/06 A3017 RMK A01 T00590057  RH  099%=      5-min Rain = 0
KPG1 081156Z 04010KT 06/06 A3017 RMK A01 T00590057  RH  099%=      5-min Rain = 0
KPG1 081157Z 03008KT 06/06 A3017 RMK A01 T00590057  RH  099%=      5-min Rain = 0
KPG1 081158Z 03010KT 06/06 A3017 RMK A01 T00590057  RH  099%=      5-min Rain = 0
KPG1 081159Z 03011KT 06/06 A3017 RMK A01 T00590057  RH  099%=      5-min Rain = 0
KPG1 081200Z 03009KT 06/06 A3017 RMK A01 T00590057  RH  099%=      5-min Rain = 0
KPG1 081201Z 03009KT 06/06 A3017 RMK A01 T00590057  RH  099%=      5-min Rain = 0
KPG1 081202Z 04009KT 06/06 A3017 RMK A01 T00590057  RH  099%=      5-min Rain = 0
KPG1 081203Z 03009KT 06/06 A3017 RMK A01 T00590057  RH  099%=      5-min Rain = 0
KPG1 081204Z 04009KT 06/06 A3017 RMK A01 T00590057  RH  099%=      5-min Rain = 0
KPG1 081205Z 04008KT 06/06 A3017 RMK A01 T00590057  RH  099%=      5-min Rain = 0
KPG1 081206Z 03009KT 06/06 A3017 RMK A01 T00590057  RH  099%=      5-min Rain = 0
KPG1 081207Z 04009KT 06/06 A3017 RMK A01 T00590057  RH  099%=      5-min Rain = 0
KPG1 081208Z 04009KT 06/06 A3017 RMK A01 T00590057  RH  099%=      5-min Rain = 0
KPG1 081209Z 03009KT 06/06 A3017 RMK A01 T00590057  RH  099%=      5-min Rain = 0
KPG1 081210Z 04009KT 06/06 A3017 RMK A01 T00590057  RH  099%=      5-min Rain = 0
KPG1 081211Z 04009KT 06/06 A3017 RMK A01 T00590057  RH  099%=      5-min Rain = 0
KPG1 081212Z 04008KT 06/06 A3017 RMK A01 T00590057  RH  099%=      5-min Rain = 0
KPG1 081213Z 04008KT 06/06 A3017 RMK A01 T00590057  RH  099%=      5-min Rain = 0
KPG1 081214Z 05008KT 06/06 A3017 RMK A01 T00590057  RH  099%=      5-min Rain = 0
KPG1 081215Z 04008KT 06/06 A3017 RMK A01 T00590057  RH  099%=      5-min Rain = 0
KPG1 081216Z 04009KT 06/06 A3017 RMK A01 T00590058  RH  099%=      5-min Rain = 0
KPG1 081217Z 04008KT 06/06 A3018 RMK A01 T00590057  RH  099%=      5-min Rain = 0
KPG1 081218Z 03010KT 06/06 A3018 RMK A01 T00590057  RH  099%=      5-min Rain = 0
KPG1 081219Z 03009KT 06/06 A3018 RMK A01 T00590057  RH  099%=      5-min Rain = 0
KPG1 081220Z 03009KT 06/06 A3018 RMK A01 T00590057  RH  099%=      5-min Rain = 0
KPG1 081221Z 02011KT 06/06 A3018 RMK A01 T00590057  RH  099%=      5-min Rain = 0
KPG1 081222Z 02012KT 06/06 A3018 RMK A01 T00590057  RH  099%=      5-min Rain = 0
KPG1 081223Z 03011KT 06/06 A3018 RMK A01 T00580056  RH  099%=      5-min Rain = 0
KPG1 081224Z 04011KT 06/06 A3018 RMK A01 T00580056  RH  099%=      5-min Rain = 0
KPG1 081225Z 03010KT 06/06 A3018 RMK A01 T00580057  RH  099%=      5-min Rain = 0
KPG1 081226Z 03011KT 06/06 A3018 RMK A01 T00580056  RH  099%=      5-min Rain = 0
KPG1 081227Z 03009KT 06/06 A3018 RMK A01 T00580056  RH  099%=      5-min Rain = 0
KPG1 081228Z 03010KT 06/06 A3018 RMK A01 T00580057  RH  099%=      5-min Rain = 0
KPG1 081229Z 04010KT 06/06 A3019 RMK A01 T00580056  RH  099%=      5-min Rain = 0
KPG1 081230Z 03009KT 06/06 A3019 RMK A01 T00580056  RH  099%=      5-min Rain = 0
KPG1 081231Z 02009KT 06/06 A3019 RMK A01 T00590057  RH  099%=      5-min Rain = 0
KPG1 081232Z 03010KT 06/06 A3019 RMK A01 T00590057  RH  099%=      5-min Rain = 0
KPG1 081233Z 03011KT 06/06 A3019 RMK A01 T00590057  RH  099%=      5-min Rain = 0
KPG1 081234Z 03011KT 06/06 A3019 RMK A01 T00590057  RH  099%=      5-min Rain = 0
KPG1 081235Z 03010KT 06/06 A3019 RMK A01 T00590057  RH  099%=      5-min Rain = 0
KPG1 081236Z 03011KT 06/06 A3019 RMK A01 T00580056  RH  099%=      5-min Rain = 0
KPG1 081237Z 04011KT 06/06 A3019 RMK A01 T00580056  RH  099%=      5-min Rain = 0
KPG1 081238Z 04010KT 06/06 A3019 RMK A01 T00580056  RH  099%=      5-min Rain = 0
KPG1 081239Z 04010KT 06/06 A3019 RMK A01 T00580056  RH  099%=      5-min Rain = 0
KPG1 081240Z 03009KT 06/06 A3019 RMK A01 T00580056  RH  099%=      5-min Rain = 0
KPG1 081241Z 03009KT 06/06 A3019 RMK A01 T00590057  RH  099%=      5-min Rain = 0
KPG1 081242Z 03009KT 06/06 A3019 RMK A01 T00590057  RH  099%=      5-min Rain = 0
KPG1 081243Z 04011KT 06/06 A3019 RMK A01 T00590057  RH  099%=      5-min Rain = 0
KPG1 081244Z 04011KT 06/06 A3019 RMK A01 T00590057  RH  099%=      5-min Rain = 0
KPG1 081245Z 04010KT 06/06 A3019 RMK A01 T00590057  RH  099%=      5-min Rain = 0
KPG1 081246Z 03011KT 06/06 A3019 RMK A01 T00590057  RH  099%=      5-min Rain = 0
KPG1 081247Z 03009KT 06/06 A3019 RMK A01 T00580056  RH  099%=      5-min Rain = 0
KPG1 081248Z 03010KT 06/06 A3019 RMK A01 T00580056  RH  099%=      5-min Rain = 0
KPG1 081249Z 04010KT 06/06 A3019 RMK A01 T00580056  RH  099%=      5-min Rain = 0
KPG1 081250Z 04009KT 06/06 A3019 RMK A01 T00580057  RH  099%=      5-min Rain = 0
KPG1 081251Z 04011KT 06/06 A3019 RMK A01 T00580056  RH  099%=      5-min Rain = 0
KPG1 081252Z 04009KT 06/06 A3019 RMK A01 T00580057  RH  099%=      5-min Rain = 0
KPG1 081253Z 03010KT 06/06 A3019 RMK A01 T00580056  RH  099%=      5-min Rain = 0
KPG1 081254Z 04010KT 06/06 A3019 RMK A01 T00580057  RH  099%=      5-min Rain = 0
KPG1 081255Z 04011KT 06/06 A3019 RMK A01 T00580056  RH  099%=      5-min Rain = 0
KPG1 081256Z 04010KT 06/06 A3019 RMK A01 T00580056  RH  099%=      5-min Rain = 0
KPG1 081257Z 03009KT 06/06 A302 RMK A01 T00580056  RH  099%=      5-min Rain = 0
KPG1 081258Z 03009KT 06/06 A302 RMK A01 T00580056  RH  099%=      5-min Rain = 0
KPG1 081259Z 03009KT 06/06 A302 RMK A01 T00580056  RH  099%=      5-min Rain = 0
KPG1 081300Z 03009KT 06/06 A302 RMK A01 T00590057  RH  099%=      5-min Rain = 0
KPG1 081301Z 03010KT 06/06 A302 RMK A01 T00590057  RH  099%=      5-min Rain = 0
KPG1 081302Z 03009KT 06/06 A302 RMK A01 T00590057  RH  099%=      5-min Rain = 0
KPG1 081303Z 04010KT 06/06 A302 RMK A01 T00590057  RH  099%=      5-min Rain = 0
KPG1 081304Z 03010KT 06/06 A302 RMK A01 T00590057  RH  099%=      5-min Rain = 0
KPG1 081305Z 04010KT 06/06 A302 RMK A01 T00590057  RH  099%=      5-min Rain = 0
KPG1 081306Z 04010KT 06/06 A302 RMK A01 T00590057  RH  099%=      5-min Rain = 0
KPG1 081307Z 04009KT 06/06 A302 RMK A01 T00580057  RH  099%=      5-min Rain = 0
KPG1 081308Z 04008KT 06/06 A302 RMK A01 T00580057  RH  099%=      5-min Rain = 0
KPG1 081309Z 04010KT 06/06 A302 RMK A01 T00580057  RH  099%=      5-min Rain = 0
KPG1 081310Z 04010KT 06/06 A302 RMK A01 T00580057  RH  099%=      5-min Rain = 0
KPG1 081311Z 05009KT 06/06 A302 RMK A01 T00580057  RH  099%=      5-min Rain = 0
KPG1 081312Z 04009KT 06/06 A302 RMK A01 T00580057  RH  099%=      5-min Rain = 0
KPG1 081313Z 04009KT 06/06 A302 RMK A01 T00580057  RH  099%=      5-min Rain = 0
KPG1 081314Z 04009KT 06/06 A302 RMK A01 T00580057  RH  099%=      5-min Rain = 0
KPG1 081315Z 04010KT 06/06 A302 RMK A01 T00580057  RH  099%=      5-min Rain = 0
KPG1 081316Z 04010KT 06/06 A302 RMK A01 T00590057  RH  099%=      5-min Rain = 0
KPG1 081317Z 04011KT 06/06 A302 RMK A01 T00580057  RH  099%=      5-min Rain = 0
KPG1 081318Z 04010KT 06/06 A302 RMK A01 T00580057  RH  099%=      5-min Rain = 0
KPG1 081319Z 05010KT 06/06 A302 RMK A01 T00580057  RH  099%=      5-min Rain = 0
KPG1 081320Z 04010KT 06/06 A302 RMK A01 T00590057  RH  099%=      5-min Rain = 0
KPG1 081321Z 04010KT 06/06 A302 RMK A01 T00580057  RH  099%=      5-min Rain = 0
KPG1 081322Z 05009KT 06/06 A302 RMK A01 T00580057  RH  099%=      5-min Rain = 0
KPG1 081323Z 04009KT 06/06 A302 RMK A01 T00580057  RH  099%=      5-min Rain = 0
KPG1 081324Z 04009KT 06/06 A3021 RMK A01 T00580057  RH  099%=      5-min Rain = 0
KPG1 081325Z 05009KT 06/06 A3021 RMK A01 T00580057  RH  099%=      5-min Rain = 0
KPG1 081326Z 04009KT 06/06 A3021 RMK A01 T00580057  RH  099%=      5-min Rain = 0
KPG1 081327Z 04009KT 06/06 A3021 RMK A01 T00580057  RH  099%=      5-min Rain = 0
KPG1 081328Z 04009KT 06/06 A3021 RMK A01 T00580057  RH  099%=      5-min Rain = 0
KPG1 081329Z 04010KT 06/06 A3021 RMK A01 T00580057  RH  099%=      5-min Rain = 0
KPG1 081330Z 04009KT 06/06 A3021 RMK A01 T00580057  RH  099%=      5-min Rain = 0
KPG1 081331Z 04009KT 06/06 A3021 RMK A01 T00580057  RH  099%=      5-min Rain = 0
KPG1 081332Z 04010KT 06/06 A3021 RMK A01 T00580057  RH  099%=      5-min Rain = 0
KPG1 081333Z 04010KT 06/06 A3021 RMK A01 T00580057  RH  099%=      5-min Rain = 0
KPG1 081334Z 04009KT 06/06 A3021 RMK A01 T00580057  RH  099%=      5-min Rain = 0
KPG1 081335Z 04008KT 06/06 A3021 RMK A01 T00580057  RH  099%=      5-min Rain = 0
KPG1 081336Z 04009KT 06/06 A3021 RMK A01 T00590057  RH  099%=      5-min Rain = 0
KPG1 081337Z 04009KT 06/06 A3021 RMK A01 T00590058  RH  099%=      5-min Rain = 0
KPG1 081338Z 04009KT 06/06 A3021 RMK A01 T00590057  RH  099%=      5-min Rain = 0
KPG1 081339Z 05011KT 06/06 A3021 RMK A01 T00590057  RH  099%=      5-min Rain = 0
KPG1 081340Z 05009KT 06/06 A3021 RMK A01 T00590057  RH  099%=      5-min Rain = 0
KPG1 081341Z 05010KT 06/06 A3021 RMK A01 T00590058  RH  099%=      5-min Rain = 0
KPG1 081342Z 04010KT 06/06 A3021 RMK A01 T00590058  RH  099%=      5-min Rain = 0
KPG1 081343Z 04010KT 06/06 A3021 RMK A01 T00590058  RH  099%=      5-min Rain = 0
KPG1 081344Z 04009KT 06/06 A3021 RMK A01 T00590058  RH  099%=      5-min Rain = 0
KPG1 081345Z 03009KT 06/06 A3021 RMK A01 T00590058  RH  099%=      5-min Rain = 0
KPG1 081346Z 03008KT 06/06 A3022 RMK A01 T00590058  RH  099%=      5-min Rain = 0
KPG1 081347Z 03009KT 06/06 A3022 RMK A01 T00590058  RH  099%=      5-min Rain = 0
KPG1 081348Z 03010KT 06/06 A3022 RMK A01 T00590058  RH  099%=      5-min Rain = 0
KPG1 081349Z 04010KT 06/06 A3022 RMK A01 T00590058  RH  099%=      5-min Rain = 0
KPG1 081350Z 04011KT 06/06 A3022 RMK A01 T00590058  RH  099%=      5-min Rain = 0
KPG1 081351Z 04011KT 06/06 A3022 RMK A01 T00590058  RH  099%=      5-min Rain = 0
KPG1 081352Z 04011KT 06/06 A3022 RMK A01 T00580057  RH  099%=      5-min Rain = 0
KPG1 081353Z 04009KT 06/06 A3022 RMK A01 T00580057  RH  099%=      5-min Rain = 0
KPG1 081354Z 04010KT 06/06 A3022 RMK A01 T00590057  RH  099%=      5-min Rain = 0
KPG1 081355Z 04010KT 06/06 A3022 RMK A01 T00590058  RH  099%=      5-min Rain = 0
KPG1 081356Z 05011KT 06/06 A3022 RMK A01 T00590057  RH  099%=      5-min Rain = 0
KPG1 081357Z 05010KT 06/06 A3022 RMK A01 T00590058  RH  099%=      5-min Rain = 0
KPG1 081358Z 05009KT 06/06 A3022 RMK A01 T00590058  RH  099%=      5-min Rain = 0
KPG1 081359Z 04010KT 06/06 A3022 RMK A01 T00590058  RH  099%=      5-min Rain = 0
KPG1 081400Z 04010KT 06/06 A3022 RMK A01 T00590058  RH  099%=      5-min Rain = 0
KPG1 081401Z 04009KT 06/06 A3022 RMK A01 T00590057  RH  099%=      5-min Rain = 0
KPG1 081402Z 03009KT 06/06 A3022 RMK A01 T00590058  RH  099%=      5-min Rain = 0
KPG1 081403Z 03010KT 06/06 A3022 RMK A01 T00590058  RH  099%=      5-min Rain = 0
KPG1 081404Z 03010KT 06/06 A3023 RMK A01 T00590058  RH  099%=      5-min Rain = 0
KPG1 081405Z 03011KT 06/06 A3023 RMK A01 T00590058  RH  099%=      5-min Rain = 0
KPG1 081406Z 04011KT 06/06 A3023 RMK A01 T00590057  RH  099%=      5-min Rain = 0
KPG1 081407Z 04011KT 06/06 A3023 RMK A01 T00590058  RH  099%=      5-min Rain = 0
KPG1 081408Z 04010KT 06/06 A3023 RMK A01 T00590057  RH  099%=      5-min Rain = 0
KPG1 081409Z 04011KT 06/06 A3023 RMK A01 T00590058  RH  099%=      5-min Rain = 0
KPG1 081410Z 05009KT 06/06 A3023 RMK A01 T00590057  RH  099%=      5-min Rain = 0
KPG1 081411Z 04010KT 06/06 A3023 RMK A01 T00590058  RH  099%=      5-min Rain = 0
KPG1 081412Z 04009KT 06/06 A3023 RMK A01 T00590058  RH  099%=      5-min Rain = 0
KPG1 081413Z 04008KT 06/06 A3023 RMK A01 T00590058  RH  099%=      5-min Rain = 0
KPG1 081414Z 04008KT 06/06 A3023 RMK A01 T00590058  RH  099%=      5-min Rain = 0
KPG1 081415Z 04009KT 06/06 A3023 RMK A01 T00590058  RH  099%=      5-min Rain = 0
KPG1 081416Z 03009KT 06/06 A3023 RMK A01 T00590058  RH  099%=      5-min Rain = 0
KPG1 081417Z 03009KT 06/06 A3023 RMK A01 T00590058  RH  099%=      5-min Rain = 0
KPG1 081418Z 03009KT 06/06 A3023 RMK A01 T00590058  RH  099%=      5-min Rain = 0
KPG1 081419Z 03009KT 06/06 A3023 RMK A01 T00590058  RH  099%=      5-min Rain = 0
KPG1 081420Z 03008KT 06/06 A3023 RMK A01 T00590058  RH  099%=      5-min Rain = 0
KPG1 081421Z 04008KT 06/06 A3023 RMK A01 T00590058  RH  099%=      5-min Rain = 0
KPG1 081422Z 04008KT 06/06 A3023 RMK A01 T00600058  RH  099%=      5-min Rain = 0
KPG1 081423Z 04008KT 06/06 A3023 RMK A01 T00600058  RH  099%=      5-min Rain = 0
KPG1 081424Z 04008KT 06/06 A3023 RMK A01 T00600059  RH  099%=      5-min Rain = 0
KPG1 081425Z 04008KT 06/06 A3024 RMK A01 T00600058  RH  099%=      5-min Rain = 0
KPG1 081426Z 03009KT 06/06 A3024 RMK A01 T00600059  RH  099%=      5-min Rain = 0
KPG1 081427Z 03008KT 06/06 A3024 RMK A01 T00600058  RH  099%=      5-min Rain = 0
KPG1 081428Z 03010KT 06/06 A3024 RMK A01 T00600059  RH  099%=      5-min Rain = 0
KPG1 081429Z 03009KT 06/06 A3024 RMK A01 T00600058  RH  099%=      5-min Rain = 0
KPG1 081430Z 03009KT 06/06 A3024 RMK A01 T00600059  RH  099%=      5-min Rain = 0
KPG1 081431Z 03008KT 06/06 A3024 RMK A01 T00610059  RH  099%=      5-min Rain = 0
KPG1 081432Z 03008KT 06/06 A3024 RMK A01 T00610059  RH  099%=      5-min Rain = 0
KPG1 081433Z 03010KT 06/06 A3024 RMK A01 T00600059  RH  099%=      5-min Rain = 0
KPG1 081434Z 04010KT 06/06 A3024 RMK A01 T00610059  RH  099%=      5-min Rain = 0
KPG1 081435Z 04011KT 06/06 A3024 RMK A01 T00610059  RH  099%=      5-min Rain = 0
KPG1 081436Z 04011KT 06/06 A3024 RMK A01 T00600059  RH  099%=      5-min Rain = 0.01
KPG1 081437Z 04010KT 06/06 A3024 RMK A01 T00600058  RH  099%=      5-min Rain = 0
KPG1 081438Z 04011KT 06/06 A3024 RMK A01 T00600058  RH  099%=      5-min Rain = 0
KPG1 081439Z 04010KT 06/06 A3024 RMK A01 T00600059  RH  099%=      5-min Rain = 0
KPG1 081440Z 04012KT 06/06 A3024 RMK A01 T00610059  RH  099%=      5-min Rain = 0
KPG1 081441Z 04011KT 06/06 A3024 RMK A01 T00610059  RH  099%=      5-min Rain = 0
KPG1 081442Z 04011KT 06/06 A3024 RMK A01 T00610059  RH  099%=      5-min Rain = 0
KPG1 081443Z 04011KT 06/06 A3024 RMK A01 T00610059  RH  099%=      5-min Rain = 0
KPG1 081444Z 05009KT 06/06 A3024 RMK A01 T00610059  RH  099%=      5-min Rain = 0
KPG1 081445Z 05010KT 06/06 A3024 RMK A01 T00610059  RH  099%=      5-min Rain = 0
KPG1 081446Z 04010KT 06/06 A3024 RMK A01 T00610059  RH  099%=      5-min Rain = 0
KPG1 081447Z 04010KT 06/06 A3024 RMK A01 T00620059  RH  099%=      5-min Rain = 0
KPG1 081448Z 04009KT 06/06 A3024 RMK A01 T00620059  RH  099%=      5-min Rain = 0
KPG1 081449Z 05011KT 06/06 A3025 RMK A01 T00620060  RH  099%=      5-min Rain = 0
KPG1 081450Z 04010KT 06/06 A3025 RMK A01 T00620059  RH  098%=      5-min Rain = 0
KPG1 081451Z 04008KT 06/06 A3025 RMK A01 T00620060  RH  098%=      5-min Rain = 0
KPG1 081452Z 04009KT 06/06 A3025 RMK A01 T00620060  RH  099%=      5-min Rain = 0
KPG1 081453Z 04010KT 06/06 A3025 RMK A01 T00620060  RH  099%=      5-min Rain = 0
KPG1 081454Z 04011KT 06/06 A3025 RMK A01 T00620060  RH  098%=      5-min Rain = 0
KPG1 081455Z 04011KT 06/06 A3025 RMK A01 T00620060  RH  098%=      5-min Rain = 0
KPG1 081456Z 04010KT 06/06 A3025 RMK A01 T00620060  RH  098%=      5-min Rain = 0
KPG1 081457Z 04010KT 06/06 A3025 RMK A01 T00620060  RH  099%=      5-min Rain = 0
KPG1 081458Z 04011KT 06/06 A3026 RMK A01 T00620060  RH  099%=      5-min Rain = 0
KPG1 081459Z 04011KT 06/06 A3026 RMK A01 T00620060  RH  098%=      5-min Rain = 0
KPG1 081500Z 04010KT 06/06 A3026 RMK A01 T00620060  RH  098%=      5-min Rain = 0
KPG1 081501Z 04009KT 06/06 A3026 RMK A01 T00620060  RH  099%=      5-min Rain = 0
KPG1 081502Z 04009KT 06/06 A3026 RMK A01 T00620060  RH  099%=      5-min Rain = 0
KPG1 081503Z 03009KT 06/06 A3026 RMK A01 T00620060  RH  099%=      5-min Rain = 0
KPG1 081504Z 03010KT 06/06 A3026 RMK A01 T00620060  RH  099%=      5-min Rain = 0
KPG1 081505Z 04010KT 06/06 A3026 RMK A01 T00620060  RH  099%=      5-min Rain = 0
KPG1 081506Z 04011KT 06/06 A3026 RMK A01 T00620060  RH  099%=      5-min Rain = 0
KPG1 081507Z 04011KT 06/06 A3026 RMK A01 T00620060  RH  099%=      5-min Rain = 0
KPG1 081508Z 04009KT 06/06 A3026 RMK A01 T00620060  RH  099%=      5-min Rain = 0
KPG1 081509Z 04009KT 06/06 A3026 RMK A01 T00620060  RH  099%=      5-min Rain = 0
KPG1 081510Z 04009KT 06/06 A3026 RMK A01 T00620060  RH  099%=      5-min Rain = 0
KPG1 081511Z 03009KT 06/06 A3026 RMK A01 T00620060  RH  099%=      5-min Rain = 0
KPG1 081512Z 03009KT 06/06 A3026 RMK A01 T00620060  RH  098%=      5-min Rain = 0
KPG1 081513Z 04008KT 06/06 A3026 RMK A01 T00620060  RH  098%=      5-min Rain = 0
KPG1 081514Z 06009KT 06/06 A3026 RMK A01 T00630060  RH  098%=      5-min Rain = 0
KPG1 081515Z 06009KT 06/06 A3026 RMK A01 T00630060  RH  098%=      5-min Rain = 0
KPG1 081516Z 05009KT 06/06 A3026 RMK A01 T00630060  RH  098%=      5-min Rain = 0
KPG1 081517Z 05009KT 06/06 A3026 RMK A01 T00630060  RH  098%=      5-min Rain = 0
KPG1 081518Z 05008KT 06/06 A3026 RMK A01 T00640061  RH  098%=      5-min Rain = 0
KPG1 081519Z 05010KT 06/06 A3026 RMK A01 T00630060  RH  098%=      5-min Rain = 0
KPG1 081520Z 05008KT 06/06 A3026 RMK A01 T00630061  RH  098%=      5-min Rain = 0
KPG1 081521Z 05008KT 06/06 A3026 RMK A01 T00630061  RH  098%=      5-min Rain = 0
KPG1 081522Z 05009KT 06/06 A3026 RMK A01 T00640061  RH  098%=      5-min Rain = 0
KPG1 081523Z 06009KT 06/06 A3026 RMK A01 T00640061  RH  098%=      5-min Rain = 0
KPG1 081524Z 06010KT 06/06 A3026 RMK A01 T00640061  RH  098%=      5-min Rain = 0
KPG1 081525Z 05009KT 06/06 A3026 RMK A01 T00640061  RH  098%=      5-min Rain = 0
KPG1 081526Z 06009KT 06/06 A3026 RMK A01 T00640061  RH  098%=      5-min Rain = 0
KPG1 081527Z 05009KT 06/06 A3026 RMK A01 T00640061  RH  098%=      5-min Rain = 0
KPG1 081528Z 04010KT 06/06 A3027 RMK A01 T00640061  RH  098%=      5-min Rain = 0
KPG1 081529Z 04010KT 06/06 A3027 RMK A01 T00630060  RH  098%=      5-min Rain = 0
KPG1 081530Z 04009KT 06/06 A3027 RMK A01 T00630060  RH  098%=      5-min Rain = 0
KPG1 081531Z 04009KT 06/06 A3027 RMK A01 T00630059  RH  098%=      5-min Rain = 0
KPG1 081532Z 04008KT 06/06 A3027 RMK A01 T00630060  RH  098%=      5-min Rain = 0
KPG1 081533Z 05009KT 06/06 A3027 RMK A01 T00630060  RH  098%=      5-min Rain = 0
KPG1 081534Z 05009KT 06/06 A3027 RMK A01 T00630060  RH  098%=      5-min Rain = 0
KPG1 081535Z 05010KT 06/06 A3027 RMK A01 T00640060  RH  098%=      5-min Rain = 0
KPG1 081536Z 05011KT 06/06 A3027 RMK A01 T00640060  RH  097%=      5-min Rain = 0
KPG1 081537Z 05010KT 06/06 A3027 RMK A01 T00640060  RH  097%=      5-min Rain = 0
KPG1 081538Z 05011KT 06/06 A3027 RMK A01 T00640059  RH  097%=      5-min Rain = 0
KPG1 081539Z 05011KT 06/06 A3027 RMK A01 T00630059  RH  097%=      5-min Rain = 0
KPG1 081540Z 04010KT 06/06 A3027 RMK A01 T00640059  RH  097%=      5-min Rain = 0
KPG1 081541Z 05009KT 06/06 A3027 RMK A01 T00640060  RH  097%=      5-min Rain = 0
KPG1 081542Z 05010KT 06/06 A3027 RMK A01 T00640059  RH  097%=      5-min Rain = 0
KPG1 081543Z 05010KT 06/06 A3027 RMK A01 T00640059  RH  096%=      5-min Rain = 0
KPG1 081544Z 05010KT 06/06 A3028 RMK A01 T00640059  RH  096%=      5-min Rain = 0
KPG1 081545Z 05009KT 06/06 A3028 RMK A01 T00640059  RH  096%=      5-min Rain = 0
KPG1 081546Z 04009KT 06/06 A3028 RMK A01 T00640059  RH  096%=      5-min Rain = 0
KPG1 081547Z 05009KT 06/06 A3028 RMK A01 T00640059  RH  096%=      5-min Rain = 0
KPG1 081548Z 05009KT 07/06 A3027 RMK A01 T00650060  RH  097%=      5-min Rain = 0
KPG1 081549Z 05010KT 07/06 A3028 RMK A01 T00650060  RH  097%=      5-min Rain = 0
KPG1 081550Z 04009KT 07/06 A3028 RMK A01 T00650060  RH  096%=      5-min Rain = 0
KPG1 081551Z 05009KT 07/06 A3028 RMK A01 T00650059  RH  096%=      5-min Rain = 0
KPG1 081552Z 04008KT 07/06 A3028 RMK A01 T00650060  RH  096%=      5-min Rain = 0
KPG1 081553Z 05008KT 07/06 A3028 RMK A01 T00660060  RH  096%=      5-min Rain = 0
KPG1 081554Z 04007KT 07/06 A3028 RMK A01 T00660060  RH  096%=      5-min Rain = 0
KPG1 081555Z 04008KT 07/06 A3028 RMK A01 T00660060  RH  096%=      5-min Rain = 0
KPG1 081556Z 05010KT 07/06 A3028 RMK A01 T00660060  RH  096%=      5-min Rain = 0
KPG1 081557Z 04009KT 07/06 A3028 RMK A01 T00660060  RH  096%=      5-min Rain = 0
KPG1 081558Z 04010KT 07/06 A3028 RMK A01 T00660060  RH  096%=      5-min Rain = 0
KPG1 081559Z 05010KT 07/06 A3028 RMK A01 T00660060  RH  096%=      5-min Rain = 0
KPG1 081600Z 05008KT 07/06 A3028 RMK A01 T00670061  RH  096%=      5-min Rain = 0
KPG1 081601Z 05008KT 07/06 A3028 RMK A01 T00670062  RH  096%=      5-min Rain = 0
KPG1 081602Z 05011KT 07/06 A3028 RMK A01 T00680062  RH  096%=      5-min Rain = 0
KPG1 081603Z 04011KT 07/06 A3028 RMK A01 T00670061  RH  096%=      5-min Rain = 0
KPG1 081604Z 05009KT 07/06 A3028 RMK A01 T00670061  RH  096%=      5-min Rain = 0
KPG1 081605Z 05010KT 07/06 A3028 RMK A01 T00670061  RH  096%=      5-min Rain = 0
KPG1 081606Z 04009KT 07/06 A3028 RMK A01 T00670062  RH  096%=      5-min Rain = 0
KPG1 081607Z 04009KT 07/06 A3028 RMK A01 T00680063  RH  097%=      5-min Rain = 0
KPG1 081608Z 05011KT 07/06 A3028 RMK A01 T00680062  RH  096%=      5-min Rain = 0
KPG1 081609Z 05009KT 07/06 A3028 RMK A01 T00670061  RH  096%=      5-min Rain = 0
KPG1 081610Z 05010KT 07/06 A3028 RMK A01 T00670061  RH  096%=      5-min Rain = 0
KPG1 081611Z 05009KT 07/06 A3028 RMK A01 T00670061  RH  096%=      5-min Rain = 0
KPG1 081612Z 05011KT 07/06 A3028 RMK A01 T00680062  RH  096%=      5-min Rain = 0
KPG1 081613Z 04011KT 07/06 A3028 RMK A01 T00680061  RH  095%=      5-min Rain = 0
KPG1 081614Z 04010KT 07/06 A3028 RMK A01 T00670060  RH  095%=      5-min Rain = 0
KPG1 081615Z 05009KT 07/06 A3028 RMK A01 T00670060  RH  095%=      5-min Rain = 0
KPG1 081616Z 04010KT 07/06 A3028 RMK A01 T00680061  RH  095%=      5-min Rain = 0
KPG1 081617Z 04010KT 07/06 A3028 RMK A01 T00680060  RH  095%=      5-min Rain = 0
KPG1 081618Z 05010KT 07/06 A3028 RMK A01 T00680061  RH  095%=      5-min Rain = 0
KPG1 081619Z 05011KT 07/06 A3028 RMK A01 T00680060  RH  095%=      5-min Rain = 0
KPG1 081620Z 05012KT 07/06 A3028 RMK A01 T00680060  RH  094%=      5-min Rain = 0
KPG1 081621Z 05010KT 07/06 A3028 RMK A01 T00680059  RH  094%=      5-min Rain = 0
KPG1 081622Z 05010KT 07/06 A3028 RMK A01 T00680060  RH  094%=      5-min Rain = 0
KPG1 081623Z 05010KT 07/06 A3028 RMK A01 T00680058  RH  094%=      5-min Rain = 0
KPG1 081624Z 05011KT 07/06 A3028 RMK A01 T00680058  RH  093%=      5-min Rain = 0
KPG1 081625Z 05009KT 07/06 A3028 RMK A01 T00680057  RH  092%=      5-min Rain = 0
KPG1 081626Z 05010KT 07/06 A3028 RMK A01 T00690058  RH  092%=      5-min Rain = 0
KPG1 081627Z 04010KT 07/06 A3028 RMK A01 T00700058  RH  092%=      5-min Rain = 0
KPG1 081628Z 05010KT 07/06 A3028 RMK A01 T00700057  RH  092%=      5-min Rain = 0
KPG1 081629Z 05010KT 07/06 A3028 RMK A01 T00700058  RH  092%=      5-min Rain = 0
KPG1 081630Z 04009KT 07/06 A3028 RMK A01 T00700058  RH  092%=      5-min Rain = 0
KPG1 081631Z 04010KT 07/06 A3028 RMK A01 T00700058  RH  092%=      5-min Rain = 0
KPG1 081632Z 04008KT 07/06 A3028 RMK A01 T00700058  RH  092%=      5-min Rain = 0
KPG1 081633Z 05008KT 07/06 A3028 RMK A01 T00700059  RH  093%=      5-min Rain = 0
KPG1 081634Z 05009KT 07/06 A3029 RMK A01 T00700060  RH  093%=      5-min Rain = 0
KPG1 081635Z 05010KT 07/06 A3029 RMK A01 T00700060  RH  093%=      5-min Rain = 0
KPG1 081636Z 04009KT 07/06 A3029 RMK A01 T00700059  RH  093%=      5-min Rain = 0
KPG1 081637Z 04008KT 07/06 A3029 RMK A01 T00700059  RH  092%=      5-min Rain = 0
KPG1 081638Z 04007KT 07/06 A3029 RMK A01 T00700060  RH  093%=      5-min Rain = 0
KPG1 081639Z 04006KT 07/06 A3029 RMK A01 T00710062  RH  094%=      5-min Rain = 0
KPG1 081640Z 03008KT 07/06 A3029 RMK A01 T00720062  RH  094%=      5-min Rain = 0
KPG1 081641Z 03008KT 07/06 A3029 RMK A01 T00710062  RH  094%=      5-min Rain = 0
KPG1 081642Z 04007KT 07/06 A3029 RMK A01 T00710061  RH  093%=      5-min Rain = 0
KPG1 081643Z 04008KT 07/06 A3029 RMK A01 T00710062  RH  094%=      5-min Rain = 0
KPG1 081644Z 04008KT 07/06 A3029 RMK A01 T00710062  RH  094%=      5-min Rain = 0
KPG1 081645Z 03009KT 07/06 A3029 RMK A01 T00720063  RH  094%=      5-min Rain = 0
KPG1 081646Z 04008KT 07/06 A3029 RMK A01 T00710061  RH  093%=      5-min Rain = 0
KPG1 081647Z 04008KT 07/06 A3029 RMK A01 T00710060  RH  093%=      5-min Rain = 0
KPG1 081648Z 05007KT 07/06 A3029 RMK A01 T00710060  RH  093%=      5-min Rain = 0
KPG1 081649Z 05008KT 07/06 A3029 RMK A01 T00710060  RH  093%=      5-min Rain = 0
KPG1 081650Z 05008KT 07/06 A3029 RMK A01 T00710060  RH  092%=      5-min Rain = 0
KPG1 081651Z 05009KT 07/06 A3029 RMK A01 T00720060  RH  092%=      5-min Rain = 0
KPG1 081652Z 04008KT 07/06 A3029 RMK A01 T00720060  RH  092%=      5-min Rain = 0
KPG1 081653Z 05007KT 07/06 A3029 RMK A01 T00730060  RH  092%=      5-min Rain = 0
KPG1 081654Z 04009KT 07/06 A3029 RMK A01 T00730060  RH  092%=      5-min Rain = 0
KPG1 081655Z 05008KT 07/06 A3029 RMK A01 T00720058  RH  091%=      5-min Rain = 0
KPG1 081656Z 05010KT 07/06 A3029 RMK A01 T00720058  RH  091%=      5-min Rain = 0
KPG1 081657Z 05008KT 07/06 A3029 RMK A01 T00720059  RH  091%=      5-min Rain = 0
KPG1 081658Z 06009KT 07/06 A3029 RMK A01 T00730059  RH  091%=      5-min Rain = 0
KPG1 081659Z 05010KT 07/06 A3029 RMK A01 T00730058  RH  090%=      5-min Rain = 0
KPG1 081700Z 06009KT 07/06 A3029 RMK A01 T00730059  RH  090%=      5-min Rain = 0
KPG1 081701Z 06010KT 07/06 A3029 RMK A01 T00740060  RH  091%=      5-min Rain = 0
KPG1 081702Z 06010KT 07/06 A3029 RMK A01 T00740060  RH  090%=      5-min Rain = 0
KPG1 081703Z 05008KT 07/06 A3029 RMK A01 T00740059  RH  090%=      5-min Rain = 0
KPG1 081704Z 05008KT 08/06 A3029 RMK A01 T00750060  RH  090%=      5-min Rain = 0
KPG1 081705Z 05008KT 08/06 A3029 RMK A01 T00750059  RH  090%=      5-min Rain = 0
KPG1 081706Z 05008KT 08/06 A3029 RMK A01 T00760059  RH  089%=      5-min Rain = 0
KPG1 081707Z 04008KT 08/06 A3029 RMK A01 T00770058  RH  088%=      5-min Rain = 0
KPG1 081708Z 03009KT 08/06 A3029 RMK A01 T00790059  RH  087%=      5-min Rain = 0
KPG1 081709Z 04008KT 08/06 A3029 RMK A01 T00790059  RH  087%=      5-min Rain = 0
KPG1 081710Z 05008KT 08/06 A3029 RMK A01 T00800062  RH  088%=      5-min Rain = 0
KPG1 081711Z 04008KT 08/06 A3029 RMK A01 T00830063  RH  088%=      5-min Rain = 0
KPG1 081712Z 05010KT 08/06 A3029 RMK A01 T00820061  RH  086%=      5-min Rain = 0
KPG1 081713Z 05010KT 08/06 A3029 RMK A01 T00820059  RH  086%=      5-min Rain = 0
KPG1 081714Z 06009KT 08/06 A3029 RMK A01 T00810059  RH  086%=      5-min Rain = 0
KPG1 081715Z 06010KT 08/06 A3029 RMK A01 T00810058  RH  086%=      5-min Rain = 0
KPG1 081716Z 06009KT 08/06 A3029 RMK A01 T00810057  RH  085%=      5-min Rain = 0
KPG1 081717Z 06008KT 08/06 A3029 RMK A01 T00800057  RH  086%=      5-min Rain = 0
KPG1 081718Z 06010KT 08/06 A3029 RMK A01 T00800057  RH  086%=      5-min Rain = 0
KPG1 081719Z 06009KT 08/06 A3029 RMK A01 T00800056  RH  085%=      5-min Rain = 0
KPG1 081720Z 05010KT 08/06 A3029 RMK A01 T00790056  RH  085%=      5-min Rain = 0
KPG1 081721Z 05009KT 08/06 A3029 RMK A01 T00790055  RH  085%=      5-min Rain = 0
KPG1 081722Z 05007KT 08/06 A3029 RMK A01 T00810058  RH  086%=      5-min Rain = 0
KPG1 081723Z 05010KT 08/06 A3029 RMK A01 T00820060  RH  086%=      5-min Rain = 0
KPG1 081724Z 04008KT 08/06 A3029 RMK A01 T00820060  RH  086%=      5-min Rain = 0
KPG1 081725Z 04008KT 08/06 A3029 RMK A01 T00830057  RH  084%=      5-min Rain = 0
KPG1 081726Z 04009KT 08/06 A3029 RMK A01 T00830055  RH  083%=      5-min Rain = 0
KPG1 081727Z 05008KT 08/05 A3029 RMK A01 T00820054  RH  082%=      5-min Rain = 0
KPG1 081728Z 06006KT 08/06 A3029 RMK A01 T00820056  RH  084%=      5-min Rain = 0
KPG1 081729Z 06008KT 08/06 A3029 RMK A01 T00820057  RH  084%=      5-min Rain = 0
KPG1 081730Z 05009KT 08/06 A3029 RMK A01 T00830057  RH  084%=      5-min Rain = 0
KPG1 081731Z 05009KT 08/06 A3029 RMK A01 T00830056  RH  083%=      5-min Rain = 0
KPG1 081732Z 06007KT 08/05 A3029 RMK A01 T00820054  RH  082%=      5-min Rain = 0
KPG1 081733Z 05008KT 08/06 A3029 RMK A01 T00820056  RH  084%=      5-min Rain = 0
KPG1 081734Z 05007KT 08/06 A3029 RMK A01 T00840059  RH  084%=      5-min Rain = 0
KPG1 081735Z 05008KT 09/06 A3029 RMK A01 T00850058  RH  083%=      5-min Rain = 0
KPG1 081736Z 05008KT 09/06 A3029 RMK A01 T00850055  RH  081%=      5-min Rain = 0
KPG1 081737Z 06008KT 09/05 A3028 RMK A01 T00860054  RH  080%=      5-min Rain = 0
KPG1 081738Z 04008KT 09/06 A3028 RMK A01 T00880056  RH  080%=      5-min Rain = 0
KPG1 081739Z 04006KT 09/06 A3028 RMK A01 T00900058  RH  080%=      5-min Rain = 0
KPG1 081740Z 05008KT 09/06 A3028 RMK A01 T00910056  RH  079%=      5-min Rain = 0
KPG1 081741Z 05009KT 09/05 A3028 RMK A01 T00890054  RH  079%=      5-min Rain = 0
KPG1 081742Z 03007KT 09/05 A3029 RMK A01 T00890053  RH  079%=      5-min Rain = 0
KPG1 081743Z 03010KT 09/05 A3029 RMK A01 T00870054  RH  079%=      5-min Rain = 0
KPG1 081744Z 03009KT 09/06 A3029 RMK A01 T00880055  RH  080%=      5-min Rain = 0
KPG1 081745Z 03011KT 09/05 A3029 RMK A01 T00890049  RH  076%=      5-min Rain = 0
KPG1 081746Z 03010KT 09/04 A3028 RMK A01 T00900044  RH  073%=      5-min Rain = 0
KPG1 081747Z 02009KT 09/05 A3028 RMK A01 T00910045  RH  073%=      5-min Rain = 0
KPG1 081748Z 01010KT 09/04 A3028 RMK A01 T00920043  RH  071%=      5-min Rain = 0
KPG1 081749Z 03010KT 09/04 A3028 RMK A01 T00910044  RH  072%=      5-min Rain = 0
KPG1 081750Z 02009KT 09/05 A3028 RMK A01 T00920047  RH  073%=      5-min Rain = 0
KPG1 081751Z 02010KT 10/05 A3028 RMK A01 T00950047  RH  072%=      5-min Rain = 0
KPG1 081752Z 02011KT 10/05 A3028 RMK A01 T00960047  RH  072%=      5-min Rain = 0
KPG1 081753Z 02011KT 10/04 A3028 RMK A01 T00950044  RH  071%=      5-min Rain = 0
KPG1 081754Z 03009KT 09/04 A3028 RMK A01 T00920044  RH  072%=      5-min Rain = 0
KPG1 081755Z 03007KT 09/05 A3028 RMK A01 T00910047  RH  074%=      5-min Rain = 0
KPG1 081756Z 03010KT 09/05 A3028 RMK A01 T00920045  RH  072%=      5-min Rain = 0
KPG1 081757Z 03009KT 09/05 A3028 RMK A01 T00930045  RH  072%=      5-min Rain = 0
KPG1 081758Z 03009KT 10/05 A3028 RMK A01 T00950047  RH  072%=      5-min Rain = 0
KPG1 081759Z 03009KT 10/04 A3028 RMK A01 T00960044  RH  070%=      5-min Rain = 0
KPG1 081800Z 03009KT 09/04 A3028 RMK A01 T00940040  RH  069%=      5-min Rain = 0
KPG1 081801Z 00008KT 09/04 A3028 RMK A01 T00930042  RH  070%=      5-min Rain = 0
KPG1 081802Z 01009KT 09/04 A3028 RMK A01 T00930042  RH  070%=      5-min Rain = 0
KPG1 081803Z 02008KT 09/04 A3028 RMK A01 T00930041  RH  070%=      5-min Rain = 0
KPG1 081804Z 02009KT 09/04 A3028 RMK A01 T00940043  RH  070%=      5-min Rain = 0
KPG1 081805Z 02011KT 10/04 A3028 RMK A01 T00950039  RH  068%=      5-min Rain = 0
KPG1 081806Z 02011KT 09/04 A3028 RMK A01 T00930037  RH  068%=      5-min Rain = 0
KPG1 081807Z 03012KT 09/04 A3028 RMK A01 T00920037  RH  068%=      5-min Rain = 0
KPG1 081808Z 02008KT 09/04 A3028 RMK A01 T00910037  RH  069%=      5-min Rain = 0
KPG1 081809Z 02007KT 09/04 A3028 RMK A01 T00910040  RH  070%=      5-min Rain = 0
KPG1 081810Z 01008KT 09/04 A3028 RMK A01 T00920038  RH  069%=      5-min Rain = 0
KPG1 081811Z 01008KT 09/04 A3028 RMK A01 T00930040  RH  070%=      5-min Rain = 0
KPG1 081812Z 36010KT 09/04 A3028 RMK A01 T00930040  RH  070%=      5-min Rain = 0
KPG1 081813Z 00008KT 09/04 A3028 RMK A01 T00930039  RH  069%=      5-min Rain = 0
KPG1 081814Z 02007KT 09/04 A3028 RMK A01 T00920038  RH  069%=      5-min Rain = 0
KPG1 081815Z 03010KT 09/04 A3027 RMK A01 T00920041  RH  070%=      5-min Rain = 0
KPG1 081816Z 02007KT 09/04 A3027 RMK A01 T00940040  RH  069%=      5-min Rain = 0
KPG1 081817Z 03008G13KT 10/04 A3027 RMK A01 T00960044  RH  070%=      5-min Rain = 0
KPG1 081818Z 02009KT 10/04 A3028 RMK A01 T00990043  RH  069%=      5-min Rain = 0
KPG1 081819Z 02007KT 10/04 A3028 RMK A01 T01000043  RH  068%=      5-min Rain = 0
KPG1 081820Z 01006KT 10/04 A3028 RMK A01 T01000043  RH  067%=      5-min Rain = 0
KPG1 081821Z 01006KT 10/04 A3027 RMK A01 T01020043  RH  067%=      5-min Rain = 0
KPG1 081822Z 03005KT 10/04 A3027 RMK A01 T01030044  RH  067%=      5-min Rain = 0
KPG1 081823Z 04009KT 11/04 A3027 RMK A01 T01050044  RH  066%=      5-min Rain = 0
KPG1 081824Z 03008KT 11/04 A3027 RMK A01 T01050041  RH  065%=      5-min Rain = 0
KPG1 081825Z 01006KT 10/04 A3027 RMK A01 T01040043  RH  066%=      5-min Rain = 0
KPG1 081826Z 36005KT 11/05 A3027 RMK A01 T01050046  RH  067%=      5-min Rain = 0
KPG1 081827Z 34007KT 11/05 A3027 RMK A01 T01090048  RH  066%=      5-min Rain = 0
KPG1 081828Z 34005KT 11/04 A3027 RMK A01 T01070041  RH  064%=      5-min Rain = 0
KPG1 081829Z 34006KT 10/04 A3027 RMK A01 T01030040  RH  065%=      5-min Rain = 0
KPG1 081830Z 00005KT 10/04 A3027 RMK A01 T01020042  RH  066%=      5-min Rain = 0
KPG1 081831Z 02005KT 10/05 A3027 RMK A01 T01030046  RH  068%=      5-min Rain = 0
KPG1 081832Z 02007KT 11/05 A3027 RMK A01 T01060047  RH  067%=      5-min Rain = 0
KPG1 081833Z 35008KT 11/05 A3027 RMK A01 T01070046  RH  066%=      5-min Rain = 0
KPG1 081834Z 34009KT 11/05 A3027 RMK A01 T01060045  RH  066%=      5-min Rain = 0
KPG1 081835Z 35009KT 10/04 A3027 RMK A01 T01040044  RH  066%=      5-min Rain = 0
KPG1 081836Z 35009KT 10/04 A3027 RMK A01 T01020039  RH  065%=      5-min Rain = 0
KPG1 081837Z 00007KT 10/04 A3027 RMK A01 T00990038  RH  066%=      5-min Rain = 0
KPG1 081838Z 01009KT 10/04 A3027 RMK A01 T00980040  RH  067%=      5-min Rain = 0
KPG1 081839Z 01010KT 10/04 A3027 RMK A01 T00980039  RH  067%=      5-min Rain = 0
KPG1 081840Z 36009KT 10/04 A3027 RMK A01 T00980040  RH  067%=      5-min Rain = 0
KPG1 081841Z 01007KT 10/04 A3027 RMK A01 T00980039  RH  066%=      5-min Rain = 0
KPG1 081842Z 01009KT 10/04 A3027 RMK A01 T00980039  RH  067%=      5-min Rain = 0
KPG1 081843Z 01010KT 10/04 A3027 RMK A01 T00980039  RH  067%=      5-min Rain = 0
KPG1 081844Z 01009KT 10/04 A3026 RMK A01 T00980036  RH  066%=      5-min Rain = 0
KPG1 081845Z 03006KT 10/04 A3026 RMK A01 T00970037  RH  066%=      5-min Rain = 0
KPG1 081846Z 02006KT 10/04 A3026 RMK A01 T00980040  RH  067%=      5-min Rain = 0
KPG1 081847Z 35005KT 10/04 A3026 RMK A01 T00990040  RH  067%=      5-min Rain = 0
KPG1 081848Z 36008KT 10/04 A3026 RMK A01 T01000039  RH  066%=      5-min Rain = 0
KPG1 081849Z 00006KT 10/04 A3026 RMK A01 T00990036  RH  065%=      5-min Rain = 0
KPG1 081850Z 01009KT 10/04 A3026 RMK A01 T00990038  RH  066%=      5-min Rain = 0
KPG1 081851Z 01009KT 10/04 A3026 RMK A01 T00990037  RH  065%=      5-min Rain = 0
KPG1 081852Z 00006KT 10/04 A3026 RMK A01 T00980036  RH  065%=      5-min Rain = 0
KPG1 081853Z 35007KT 10/04 A3026 RMK A01 T00980040  RH  067%=      5-min Rain = 0
KPG1 081854Z 35007KT 10/04 A3026 RMK A01 T00990038  RH  066%=      5-min Rain = 0
KPG1 081855Z 35008KT 10/04 A3026 RMK A01 T00980036  RH  065%=      5-min Rain = 0
KPG1 081856Z 01008KT 10/04 A3026 RMK A01 T00980039  RH  067%=      5-min Rain = 0
KPG1 081857Z 00008KT 10/04 A3026 RMK A01 T01000039  RH  066%=      5-min Rain = 0
KPG1 081858Z 35006KT 10/04 A3026 RMK A01 T01010040  RH  066%=      5-min Rain = 0
KPG1 081859Z 01007KT 10/04 A3026 RMK A01 T01030044  RH  067%=      5-min Rain = 0
KPG1 081900Z 00009KT 11/04 A3026 RMK A01 T01050041  RH  065%=      5-min Rain = 0
KPG1 081901Z 00007KT 10/04 A3026 RMK A01 T01040039  RH  064%=      5-min Rain = 0
KPG1 081902Z 02009KT 10/04 A3026 RMK A01 T01030041  RH  065%=      5-min Rain = 0
KPG1 081903Z 02009KT 10/04 A3026 RMK A01 T01040041  RH  065%=      5-min Rain = 0
KPG1 081904Z 35008KT 10/04 A3026 RMK A01 T01040040  RH  064%=      5-min Rain = 0
KPG1 081905Z 35008KT 10/04 A3026 RMK A01 T01040041  RH  065%=      5-min Rain = 0
KPG1 081906Z 36008KT 10/04 A3025 RMK A01 T01030039  RH  064%=      5-min Rain = 0
KPG1 081907Z 00007KT 10/04 A3025 RMK A01 T01010036  RH  064%=      5-min Rain = 0
KPG1 081908Z 02008KT 10/04 A3025 RMK A01 T01000037  RH  065%=      5-min Rain = 0
KPG1 081909Z 02007KT 10/04 A3025 RMK A01 T01000039  RH  066%=      5-min Rain = 0
KPG1 081910Z 03006KT 10/04 A3025 RMK A01 T01010039  RH  065%=      5-min Rain = 0
KPG1 081911Z 02006KT 10/04 A3025 RMK A01 T01010039  RH  065%=      5-min Rain = 0
KPG1 081912Z 36009KT 10/04 A3025 RMK A01 T01020040  RH  066%=      5-min Rain = 0
KPG1 081913Z 35009KT 10/04 A3025 RMK A01 T01030040  RH  065%=      5-min Rain = 0
KPG1 081914Z 35007KT 10/04 A3025 RMK A01 T01030040  RH  065%=      5-min Rain = 0
KPG1 081915Z 35008KT 10/04 A3025 RMK A01 T01030043  RH  066%=      5-min Rain = 0
KPG1 081916Z 35009KT 11/04 A3025 RMK A01 T01050042  RH  065%=      5-min Rain = 0
KPG1 081917Z 34010KT 10/04 A3025 RMK A01 T01040040  RH  064%=      5-min Rain = 0
KPG1 081918Z 34009KT 10/04 A3025 RMK A01 T01030039  RH  065%=      5-min Rain = 0
KPG1 081919Z 35009KT 10/04 A3025 RMK A01 T01020037  RH  064%=      5-min Rain = 0
KPG1 081920Z 34008KT 10/04 A3025 RMK A01 T01020040  RH  066%=      5-min Rain = 0
KPG1 081921Z 34008KT 10/04 A3025 RMK A01 T01020040  RH  066%=      5-min Rain = 0
KPG1 081922Z 35008KT 10/04 A3025 RMK A01 T01020039  RH  065%=      5-min Rain = 0
KPG1 081923Z 35010KT 10/04 A3025 RMK A01 T01010039  RH  065%=      5-min Rain = 0
KPG1 081924Z 35009KT 10/04 A3025 RMK A01 T01010038  RH  065%=      5-min Rain = 0
KPG1 081925Z 36007KT 10/04 A3025 RMK A01 T01010039  RH  065%=      5-min Rain = 0
KPG1 081926Z 00007KT 10/04 A3025 RMK A01 T01000039  RH  066%=      5-min Rain = 0
KPG1 081927Z 36007KT 10/04 A3025 RMK A01 T01010040  RH  066%=      5-min Rain = 0
KPG1 081928Z 35009KT 10/04 A3025 RMK A01 T01010040  RH  066%=      5-min Rain = 0
KPG1 081929Z 35008KT 10/04 A3025 RMK A01 T01020041  RH  066%=      5-min Rain = 0
KPG1 081930Z 35007KT 10/04 A3025 RMK A01 T01020039  RH  065%=      5-min Rain = 0
KPG1 081931Z 00006KT 10/04 A3024 RMK A01 T01020040  RH  066%=      5-min Rain = 0
KPG1 081932Z 35007KT 10/04 A3024 RMK A01 T01030041  RH  066%=      5-min Rain = 0
KPG1 081933Z 35007KT 10/04 A3024 RMK A01 T01030040  RH  065%=      5-min Rain = 0
KPG1 081934Z 35006KT 10/04 A3024 RMK A01 T01030038  RH  064%=      5-min Rain = 0
KPG1 081935Z 00004KT 10/04 A3024 RMK A01 T01020036  RH  064%=      5-min Rain = 0
KPG1 081936Z 01005KT 10/04 A3024 RMK A01 T01010038  RH  065%=      5-min Rain = 0
KPG1 081937Z 36005KT 10/04 A3024 RMK A01 T01030040  RH  065%=      5-min Rain = 0
KPG1 081938Z 36006KT 10/04 A3024 RMK A01 T01040040  RH  065%=      5-min Rain = 0
KPG1 081939Z 35007KT 10/04 A3024 RMK A01 T01040038  RH  064%=      5-min Rain = 0
KPG1 081940Z 36007KT 10/04 A3024 RMK A01 T01040039  RH  064%=      5-min Rain = 0
KPG1 081941Z 01006KT 10/04 A3024 RMK A01 T01040037  RH  063%=      5-min Rain = 0
KPG1 081942Z 00005KT 10/04 A3024 RMK A01 T01040038  RH  064%=      5-min Rain = 0
KPG1 081943Z 00005KT 10/04 A3024 RMK A01 T01040040  RH  064%=      5-min Rain = 0
KPG1 081944Z 03004KT 11/04 A3024 RMK A01 T01050041  RH  064%=      5-min Rain = 0
KPG1 081945Z 00006KT 11/04 A3024 RMK A01 T01070043  RH  065%=      5-min Rain = 0
KPG1 081946Z 34007KT 11/04 A3024 RMK A01 T01070040  RH  063%=      5-min Rain = 0
KPG1 081947Z 36006KT 11/04 A3024 RMK A01 T01070038  RH  063%=      5-min Rain = 0
KPG1 081948Z 01004KT 11/04 A3024 RMK A01 T01050037  RH  062%=      5-min Rain = 0
KPG1 081949Z 35007KT 11/04 A3024 RMK A01 T01050039  RH  063%=      5-min Rain = 0
KPG1 081950Z 36006KT 11/04 A3024 RMK A01 T01050038  RH  063%=      5-min Rain = 0
KPG1 081951Z 35005KT 11/04 A3024 RMK A01 T01060042  RH  064%=      5-min Rain = 0
KPG1 081952Z 00005KT 11/04 A3024 RMK A01 T01080042  RH  064%=      5-min Rain = 0
KPG1 081953Z 35009KT 11/04 A3024 RMK A01 T01090043  RH  064%=      5-min Rain = 0
KPG1 081954Z 00009KT 11/04 A3024 RMK A01 T01090041  RH  063%=      5-min Rain = 0
KPG1 081955Z 00008KT 11/04 A3024 RMK A01 T01070039  RH  063%=      5-min Rain = 0
KPG1 081956Z 35010KT 11/04 A3024 RMK A01 T01070039  RH  063%=      5-min Rain = 0
KPG1 081957Z 36008KT 11/04 A3024 RMK A01 T01060039  RH  063%=      5-min Rain = 0
KPG1 081958Z 36007KT 11/04 A3024 RMK A01 T01060039  RH  064%=      5-min Rain = 0
KPG1 081959Z 02007KT 11/04 A3024 RMK A01 T01060040  RH  064%=      5-min Rain = 0
KPG1 082000Z 01005KT 11/04 A3023 RMK A01 T01060038  RH  063%=      5-min Rain = 0
KPG1 082001Z 01007KT 11/04 A3023 RMK A01 T01050040  RH  064%=      5-min Rain = 0
KPG1 082002Z 01008KT 11/04 A3023 RMK A01 T01060040  RH  064%=      5-min Rain = 0
KPG1 082003Z 01010KT 11/04 A3023 RMK A01 T01060040  RH  064%=      5-min Rain = 0
KPG1 082004Z 01009KT 11/04 A3023 RMK A01 T01060040  RH  064%=      5-min Rain = 0
KPG1 082005Z 36008KT 11/04 A3023 RMK A01 T01060039  RH  063%=      5-min Rain = 0
KPG1 082006Z 00007KT 11/04 A3023 RMK A01 T01050038  RH  063%=      5-min Rain = 0
KPG1 082007Z 03008KT 11/04 A3023 RMK A01 T01050039  RH  064%=      5-min Rain = 0
KPG1 082008Z 03009KT 11/04 A3023 RMK A01 T01050039  RH  064%=      5-min Rain = 0
KPG1 082009Z 01008KT 11/04 A3023 RMK A01 T01050039  RH  064%=      5-min Rain = 0
KPG1 082010Z 00008KT 11/04 A3023 RMK A01 T01050038  RH  063%=      5-min Rain = 0
KPG1 082011Z 35008KT 11/04 A3023 RMK A01 T01050038  RH  063%=      5-min Rain = 0
KPG1 082012Z 35008KT 11/04 A3023 RMK A01 T01050038  RH  063%=      5-min Rain = 0
KPG1 082013Z 00007KT 11/04 A3023 RMK A01 T01050038  RH  063%=      5-min Rain = 0
KPG1 082014Z 01008KT 11/04 A3023 RMK A01 T01050037  RH  063%=      5-min Rain = 0
KPG1 082015Z 01007KT 11/04 A3023 RMK A01 T01050038  RH  063%=      5-min Rain = 0
KPG1 082016Z 01008KT 11/04 A3023 RMK A01 T01070040  RH  064%=      5-min Rain = 0
KPG1 082017Z 01007KT 11/04 A3023 RMK A01 T01070040  RH  063%=      5-min Rain = 0
KPG1 082018Z 01007KT 11/04 A3023 RMK A01 T01080038  RH  062%=      5-min Rain = 0
KPG1 082019Z 00007KT 11/04 A3023 RMK A01 T01070037  RH  062%=      5-min Rain = 0
KPG1 082020Z 02005KT 11/04 A3023 RMK A01 T01070039  RH  063%=      5-min Rain = 0
KPG1 082021Z 01007KT 11/04 A3023 RMK A01 T01080039  RH  062%=      5-min Rain = 0
KPG1 082022Z 01006KT 11/04 A3023 RMK A01 T01080040  RH  063%=      5-min Rain = 0
KPG1 082023Z 02008KT 11/04 A3023 RMK A01 T01100042  RH  063%=      5-min Rain = 0
KPG1 082024Z 01008KT 11/04 A3023 RMK A01 T01110041  RH  062%=      5-min Rain = 0
KPG1 082025Z 01007KT 11/04 A3023 RMK A01 T01100038  RH  061%=      5-min Rain = 0
KPG1 082026Z 36006KT 11/04 A3023 RMK A01 T01100041  RH  062%=      5-min Rain = 0
KPG1 082027Z 00009KT 11/04 A3023 RMK A01 T01110042  RH  062%=      5-min Rain = 0
KPG1 082028Z 01007KT 11/04 A3023 RMK A01 T01110038  RH  061%=      5-min Rain = 0
KPG1 082029Z 35008KT 11/04 A3023 RMK A01 T01100039  RH  062%=      5-min Rain = 0
KPG1 082030Z 36006KT 11/04 A3023 RMK A01 T01090036  RH  061%=      5-min Rain = 0
KPG1 082031Z 34006KT 11/04 A3023 RMK A01 T01080038  RH  062%=      5-min Rain = 0
KPG1 082032Z 33008KT 11/04 A3023 RMK A01 T01080040  RH  062%=      5-min Rain = 0
KPG1 082033Z 36007KT 11/04 A3023 RMK A01 T01090038  RH  062%=      5-min Rain = 0
KPG1 082034Z 00010KT 11/04 A3023 RMK A01 T01090037  RH  061%=      5-min Rain = 0
KPG1 082035Z 36008KT 11/04 A3023 RMK A01 T01080035  RH  061%=      5-min Rain = 0
KPG1 082036Z 00008KT 11/04 A3023 RMK A01 T01070037  RH  062%=      5-min Rain = 0
KPG1 082037Z 01010KT 11/04 A3023 RMK A01 T01070037  RH  062%=      5-min Rain = 0
KPG1 082038Z 00008KT 11/04 A3023 RMK A01 T01070036  RH  061%=      5-min Rain = 0
KPG1 082039Z 02008KT 11/04 A3023 RMK A01 T01070037  RH  062%=      5-min Rain = 0
KPG1 082040Z 02008KT 11/04 A3023 RMK A01 T01070036  RH  061%=      5-min Rain = 0
KPG1 082041Z 03009KT 11/04 A3023 RMK A01 T01060035  RH  061%=      5-min Rain = 0
KPG1 082042Z 02008KT 11/04 A3023 RMK A01 T01060035  RH  062%=      5-min Rain = 0
KPG1 082043Z 02008KT 11/04 A3023 RMK A01 T01060037  RH  062%=      5-min Rain = 0
KPG1 082044Z 02008KT 11/04 A3023 RMK A01 T01070037  RH  062%=      5-min Rain = 0
KPG1 082045Z 02008KT 11/04 A3023 RMK A01 T01070036  RH  062%=      5-min Rain = 0
KPG1 082046Z 35006KT 11/04 A3023 RMK A01 T01070037  RH  062%=      5-min Rain = 0
KPG1 082047Z 35007KT 11/04 A3023 RMK A01 T01070038  RH  062%=      5-min Rain = 0
KPG1 082048Z 34008KT 11/04 A3023 RMK A01 T01080039  RH  062%=      5-min Rain = 0
KPG1 082049Z 35007KT 11/04 A3022 RMK A01 T01080036  RH  061%=      5-min Rain = 0
KPG1 082050Z 34008KT 11/04 A3022 RMK A01 T01070036  RH  061%=      5-min Rain = 0
KPG1 082051Z 34008KT 11/04 A3023 RMK A01 T01070038  RH  062%=      5-min Rain = 0
KPG1 082052Z 34008KT 11/04 A3022 RMK A01 T01080036  RH  061%=      5-min Rain = 0
KPG1 082053Z 34007KT 11/04 A3022 RMK A01 T01080036  RH  061%=      5-min Rain = 0
KPG1 082054Z 35007KT 11/04 A3022 RMK A01 T01080036  RH  061%=      5-min Rain = 0
KPG1 082055Z 35008KT 11/04 A3022 RMK A01 T01080037  RH  062%=      5-min Rain = 0
KPG1 082056Z 35009KT 11/04 A3022 RMK A01 T01090037  RH  061%=      5-min Rain = 0
KPG1 082057Z 35009KT 11/04 A3022 RMK A01 T01090035  RH  060%=      5-min Rain = 0
KPG1 082058Z 36009KT 11/04 A3023 RMK A01 T01080035  RH  061%=      5-min Rain = 0
KPG1 082059Z 35008KT 11/04 A3023 RMK A01 T01080035  RH  061%=      5-min Rain = 0
KPG1 082100Z 34006KT 11/04 A3023 RMK A01 T01070036  RH  061%=      5-min Rain = 0
KPG1 082101Z 32006KT 11/04 A3023 RMK A01 T01070036  RH  061%=      5-min Rain = 0
KPG1 082102Z 34006KT 11/04 A3023 RMK A01 T01070038  RH  062%=      5-min Rain = 0
KPG1 082103Z 36005KT 11/04 A3023 RMK A01 T01080039  RH  062%=      5-min Rain = 0
KPG1 082104Z 36006KT 11/04 A3023 RMK A01 T01090038  RH  061%=      5-min Rain = 0
KPG1 082105Z 36006KT 11/04 A3023 RMK A01 T01090035  RH  060%=      5-min Rain = 0
KPG1 082106Z 35006KT 11/04 A3023 RMK A01 T01080035  RH  061%=      5-min Rain = 0
KPG1 082107Z 00005KT 11/03 A3023 RMK A01 T01070034  RH  061%=      5-min Rain = 0
KPG1 082108Z 36005KT 11/04 A3023 RMK A01 T01070035  RH  061%=      5-min Rain = 0
KPG1 082109Z 00005KT 11/04 A3023 RMK A01 T01070035  RH  061%=      5-min Rain = 0
KPG1 082110Z 35004KT 11/04 A3022 RMK A01 T01070035  RH  061%=      5-min Rain = 0
KPG1 082111Z 35003KT 11/04 A3022 RMK A01 T01070035  RH  061%=      5-min Rain = 0
KPG1 082112Z 01003KT 11/04 A3022 RMK A01 T01070035  RH  061%=      5-min Rain = 0
KPG1 082113Z 03006KT 11/04 A3022 RMK A01 T01080036  RH  061%=      5-min Rain = 0
KPG1 082114Z 03006KT 11/04 A3022 RMK A01 T01090036  RH  061%=      5-min Rain = 0
KPG1 082115Z 02005KT 11/04 A3022 RMK A01 T01090035  RH  060%=      5-min Rain = 0
KPG1 082116Z 36002KT 11/04 A3022 RMK A01 T01090037  RH  061%=      5-min Rain = 0
KPG1 082117Z 00003KT 11/04 A3022 RMK A01 T01110039  RH  061%=      5-min Rain = 0
KPG1 082118Z 02004KT 11/04 A3022 RMK A01 T01120037  RH  060%=      5-min Rain = 0
KPG1 082119Z 03003KT 11/04 A3022 RMK A01 T01120037  RH  060%=      5-min Rain = 0
KPG1 082120Z 02003KT 11/04 A3022 RMK A01 T01120038  RH  060%=      5-min Rain = 0
KPG1 082121Z 36003KT 11/04 A3022 RMK A01 T01120038  RH  060%=      5-min Rain = 0
KPG1 082122Z 35003KT 11/03 A3022 RMK A01 T01120034  RH  059%=      5-min Rain = 0
KPG1 082123Z 35003KT 11/04 A3022 RMK A01 T01120037  RH  060%=      5-min Rain = 0
KPG1 082124Z 35002KT 11/04 A3022 RMK A01 T01140038  RH  060%=      5-min Rain = 0
KPG1 082125Z 35005KT 12/04 A3022 RMK A01 T01160038  RH  059%=      5-min Rain = 0
KPG1 082126Z 35005KT 12/04 A3022 RMK A01 T01160036  RH  058%=      5-min Rain = 0
KPG1 082127Z 36003KT 12/04 A3022 RMK A01 T01150036  RH  058%=      5-min Rain = 0
KPG1 082128Z 00004KT 12/04 A3022 RMK A01 T01150035  RH  058%=      5-min Rain = 0
KPG1 082129Z 02005KT 12/04 A3022 RMK A01 T01150036  RH  058%=      5-min Rain = 0
KPG1 082130Z 02004KT 12/04 A3022 RMK A01 T01150035  RH  058%=      5-min Rain = 0
KPG1 082131Z 03004KT 11/03 A3022 RMK A01 T01140034  RH  058%=      5-min Rain = 0
KPG1 082132Z 03004KT 11/04 A3022 RMK A01 T01140036  RH  059%=      5-min Rain = 0
KPG1 082133Z 01003KT 11/04 A3022 RMK A01 T01140035  RH  058%=      5-min Rain = 0
KPG1 082134Z 00003KT 11/04 A3022 RMK A01 T01140035  RH  058%=      5-min Rain = 0
KPG1 082135Z 02002KT 12/04 A3022 RMK A01 T01150037  RH  059%=      5-min Rain = 0
KPG1 082136Z 03003KT 12/04 A3022 RMK A01 T01160038  RH  059%=      5-min Rain = 0
KPG1 082137Z 04002KT 12/04 A3022 RMK A01 T01160036  RH  058%=      5-min Rain = 0
KPG1 082138Z 08002KT 12/04 A3022 RMK A01 T01150036  RH  058%=      5-min Rain = 0
KPG1 082139Z 03002KT 12/04 A3022 RMK A01 T01160036  RH  058%=      5-min Rain = 0
KPG1 082140Z 07003KT 12/04 A3022 RMK A01 T01160036  RH  058%=      5-min Rain = 0
KPG1 082141Z 05004KT 12/04 A3022 RMK A01 T01160036  RH  058%=      5-min Rain = 0
KPG1 082142Z 05004KT 12/04 A3022 RMK A01 T01150035  RH  058%=      5-min Rain = 0
KPG1 082143Z 07002KT 11/03 A3022 RMK A01 T01130032  RH  057%=      5-min Rain = 0
KPG1 082144Z 08002KT 11/03 A3022 RMK A01 T01130034  RH  058%=      5-min Rain = 0
KPG1 082145Z 07003KT 11/04 A3022 RMK A01 T01140037  RH  059%=      5-min Rain = 0
KPG1 082146Z 02002KT 12/04 A3022 RMK A01 T01160037  RH  058%=      5-min Rain = 0
KPG1 082147Z 35003KT 12/04 A3022 RMK A01 T01170040  RH  059%=      5-min Rain = 0
KPG1 082148Z 36004KT 12/04 A3022 RMK A01 T01190041  RH  059%=      5-min Rain = 0
KPG1 082149Z 34004KT 12/04 A3022 RMK A01 T01190037  RH  057%=      5-min Rain = 0
KPG1 082150Z 34003KT 12/04 A3022 RMK A01 T01170036  RH  058%=      5-min Rain = 0
KPG1 082151Z 34003KT 12/04 A3022 RMK A01 T01160038  RH  059%=      5-min Rain = 0
KPG1 082152Z 34004KT 12/04 A3022 RMK A01 T01170040  RH  059%=      5-min Rain = 0
KPG1 082153Z 33003KT 12/04 A3022 RMK A01 T01180039  RH  058%=      5-min Rain = 0
KPG1 082154Z 33003KT 12/04 A3022 RMK A01 T01180038  RH  058%=      5-min Rain = 0
KPG1 082155Z 35002KT 12/04 A3022 RMK A01 T01180042  RH  059%=      5-min Rain = 0
KPG1 082156Z 02002KT 12/04 A3022 RMK A01 T01210043  RH  059%=      5-min Rain = 0
KPG1 082157Z 04001KT 12/04 A3022 RMK A01 T01210040  RH  058%=      5-min Rain = 0
KPG1 082158Z 21001KT 12/04 A3022 RMK A01 T01200042  RH  059%=      5-min Rain = 0
KPG1 082159Z 22002KT 12/04 A3022 RMK A01 T01210043  RH  059%=      5-min Rain = 0
KPG1 082200Z 27004KT 12/05 A3022 RMK A01 T01220046  RH  060%=      5-min Rain = 0
KPG1 082201Z 29003KT 12/05 A3022 RMK A01 T01220045  RH  059%=      5-min Rain = 0
KPG1 082202Z 30003KT 12/04 A3022 RMK A01 T01220044  RH  059%=      5-min Rain = 0
KPG1 082203Z 31003KT 12/04 A3022 RMK A01 T01210042  RH  059%=      5-min Rain = 0
KPG1 082204Z 28002KT 12/04 A3022 RMK A01 T01200043  RH  059%=      5-min Rain = 0
KPG1 082205Z 25003KT 12/05 A3022 RMK A01 T01210046  RH  060%=      5-min Rain = 0
KPG1 082206Z 23004KT 12/05 A3022 RMK A01 T01230046  RH  059%=      5-min Rain = 0
KPG1 082207Z 22005KT 13/05 A3022 RMK A01 T01250046  RH  059%=      5-min Rain = 0
KPG1 082208Z 22004KT 13/05 A3022 RMK A01 T01250047  RH  059%=      5-min Rain = 0
KPG1 082209Z 20004KT 13/05 A3022 RMK A01 T01250046  RH  059%=      5-min Rain = 0
KPG1 082210Z 20004KT 12/04 A3022 RMK A01 T01240043  RH  058%=      5-min Rain = 0
KPG1 082211Z 24004KT 12/05 A3022 RMK A01 T01230045  RH  059%=      5-min Rain = 0
KPG1 082212Z 26003KT 12/04 A3022 RMK A01 T01230043  RH  058%=      5-min Rain = 0
KPG1 082213Z 24002KT 12/04 A3022 RMK A01 T01220043  RH  059%=      5-min Rain = 0
KPG1 082214Z 23003KT 12/05 A3022 RMK A01 T01230045  RH  059%=      5-min Rain = 0
KPG1 082215Z 22005KT 12/05 A3022 RMK A01 T01240046  RH  059%=      5-min Rain = 0
KPG1 082216Z 22004KT 12/04 A3022 RMK A01 T01240044  RH  058%=      5-min Rain = 0
KPG1 082217Z 24004KT 12/04 A3022 RMK A01 T01230044  RH  059%=      5-min Rain = 0
KPG1 082218Z 25003KT 12/04 A3022 RMK A01 T01220043  RH  058%=      5-min Rain = 0
KPG1 082219Z 22003KT 12/04 A3022 RMK A01 T01210042  RH  058%=      5-min Rain = 0
KPG1 082220Z 19001KT 12/04 A3022 RMK A01 T01210042  RH  059%=      5-min Rain = 0
KPG1 082221Z 23004KT 12/05 A3022 RMK A01 T01220046  RH  060%=      5-min Rain = 0
KPG1 082222Z 23004KT 12/05 A3022 RMK A01 T01230045  RH  059%=      5-min Rain = 0
KPG1 082223Z 21003KT 12/05 A3022 RMK A01 T01230045  RH  059%=      5-min Rain = 0
KPG1 082224Z 19004KT 12/05 A3022 RMK A01 T01240047  RH  060%=      5-min Rain = 0
KPG1 082225Z 20004KT 12/05 A3022 RMK A01 T01240046  RH  059%=      5-min Rain = 0
KPG1 082226Z 22003KT 13/05 A3022 RMK A01 T01250049  RH  060%=      5-min Rain = 0
KPG1 082227Z 23003KT 13/05 A3022 RMK A01 T01260046  RH  058%=      5-min Rain = 0
KPG1 082228Z 22003KT 13/05 A3022 RMK A01 T01260045  RH  058%=      5-min Rain = 0
KPG1 082229Z 21003KT 13/05 A3022 RMK A01 T01250046  RH  059%=      5-min Rain = 0
KPG1 082230Z 21003KT 13/05 A3022 RMK A01 T01250047  RH  059%=      5-min Rain = 0
KPG1 082231Z 21004KT 13/05 A3022 RMK A01 T01260046  RH  058%=      5-min Rain = 0
KPG1 082232Z 21004KT 13/05 A3022 RMK A01 T01250045  RH  058%=      5-min Rain = 0
KPG1 082233Z 20004KT 12/05 A3022 RMK A01 T01240046  RH  059%=      5-min Rain = 0
KPG1 082234Z 20003KT 12/04 A3022 RMK A01 T01230044  RH  058%=      5-min Rain = 0
KPG1 082235Z 18004KT 12/04 A3022 RMK A01 T01230044  RH  059%=      5-min Rain = 0
KPG1 082236Z 20002KT 12/05 A3022 RMK A01 T01220045  RH  059%=      5-min Rain = 0
KPG1 082237Z 20003KT 12/05 A3022 RMK A01 T01230045  RH  059%=      5-min Rain = 0
KPG1 082238Z 20003KT 12/04 A3022 RMK A01 T01230043  RH  058%=      5-min Rain = 0
KPG1 082239Z 20002KT 12/04 A3022 RMK A01 T01230044  RH  059%=      5-min Rain = 0
KPG1 082240Z 22003KT 12/05 A3022 RMK A01 T01220045  RH  059%=      5-min Rain = 0
KPG1 082241Z 22004KT 12/05 A3022 RMK A01 T01240048  RH  060%=      5-min Rain = 0
KPG1 082242Z 22003KT 13/05 A3022 RMK A01 T01260045  RH  058%=      5-min Rain = 0
KPG1 082243Z 23003KT 13/05 A3022 RMK A01 T01250047  RH  059%=      5-min Rain = 0
KPG1 082244Z 26003KT 13/05 A3022 RMK A01 T01260048  RH  059%=      5-min Rain = 0
KPG1 082245Z 24001KT 13/05 A3022 RMK A01 T01260046  RH  058%=      5-min Rain = 0
KPG1 082246Z 17002KT 13/05 A3022 RMK A01 T01270048  RH  059%=      5-min Rain = 0
KPG1 082247Z 17003KT 13/05 A3022 RMK A01 T01280046  RH  058%=      5-min Rain = 0
KPG1 082248Z 21004KT 13/05 A3022 RMK A01 T01280047  RH  058%=      5-min Rain = 0
KPG1 082249Z 20004KT 13/05 A3022 RMK A01 T01280049  RH  059%=      5-min Rain = 0
KPG1 082250Z 20004KT 13/05 A3022 RMK A01 T01280047  RH  058%=      5-min Rain = 0
KPG1 082251Z 21004KT 13/05 A3022 RMK A01 T01270048  RH  059%=      5-min Rain = 0
KPG1 082252Z 20003KT 13/05 A3023 RMK A01 T01270046  RH  058%=      5-min Rain = 0
KPG1 082253Z 19002KT 13/05 A3023 RMK A01 T01260045  RH  058%=      5-min Rain = 0
KPG1 082254Z 21002KT 13/05 A3023 RMK A01 T01250046  RH  058%=      5-min Rain = 0
KPG1 082255Z 24003KT 13/05 A3023 RMK A01 T01260046  RH  058%=      5-min Rain = 0
KPG1 082256Z 25003KT 13/05 A3023 RMK A01 T01260045  RH  058%=      5-min Rain = 0
KPG1 082257Z 26002KT 13/04 A3022 RMK A01 T01250044  RH  058%=      5-min Rain = 0
KPG1 082258Z 22001KT 13/05 A3022 RMK A01 T01250046  RH  059%=      5-min Rain = 0
KPG1 082259Z 21001KT 13/05 A3022 RMK A01 T01260045  RH  058%=      5-min Rain = 0
KPG1 082300Z 19001KT 13/04 A3022 RMK A01 T01250043  RH  057%=      5-min Rain = 0
KPG1 082301Z 22003KT 13/05 A3022 RMK A01 T01260045  RH  058%=      5-min Rain = 0
KPG1 082302Z 23003KT 13/05 A3023 RMK A01 T01260047  RH  058%=      5-min Rain = 0
KPG1 082303Z 18001KT 13/05 A3023 RMK A01 T01280049  RH  059%=      5-min Rain = 0
KPG1 082304Z 26000KT 13/05 A3023 RMK A01 T01280048  RH  058%=      5-min Rain = 0
KPG1 082305Z 00000KT 13/05 A3023 RMK A01 T01280045  RH  057%=      5-min Rain = 0
KPG1 082306Z 08000KT 13/05 A3022 RMK A01 T01290047  RH  058%=      5-min Rain = 0
KPG1 082307Z 01001KT 13/05 A3022 RMK A01 T01290046  RH  057%=      5-min Rain = 0
KPG1 082308Z 02000KT 13/05 A3022 RMK A01 T01290045  RH  057%=      5-min Rain = 0
KPG1 082309Z 28000KT 13/05 A3022 RMK A01 T01290048  RH  058%=      5-min Rain = 0
KPG1 082310Z 25002KT 13/05 A3022 RMK A01 T01300047  RH  057%=      5-min Rain = 0
KPG1 082311Z 23002KT 13/05 A3022 RMK A01 T01300047  RH  057%=      5-min Rain = 0
KPG1 082312Z 22002KT 13/05 A3022 RMK A01 T01300048  RH  057%=      5-min Rain = 0
KPG1 082313Z 22002KT 13/05 A3022 RMK A01 T01290046  RH  057%=      5-min Rain = 0
KPG1 082314Z 23002KT 13/05 A3022 RMK A01 T01270045  RH  058%=      5-min Rain = 0
KPG1 082315Z 24002KT 13/05 A3022 RMK A01 T01260047  RH  058%=      5-min Rain = 0
KPG1 082316Z 23001KT 13/05 A3022 RMK A01 T01250045  RH  058%=      5-min Rain = 0
KPG1 082317Z 23001KT 12/05 A3022 RMK A01 T01240045  RH  058%=      5-min Rain = 0
KPG1 082318Z 24001KT 12/04 A3022 RMK A01 T01240044  RH  058%=      5-min Rain = 0
KPG1 082319Z 24000KT 12/05 A3022 RMK A01 T01240045  RH  059%=      5-min Rain = 0
KPG1 082320Z 24000KT 12/05 A3023 RMK A01 T01240045  RH  059%=      5-min Rain = 0
KPG1 082321Z 22000KT 13/05 A3023 RMK A01 T01250048  RH  059%=      5-min Rain = 0
KPG1 082322Z 22000KT 13/05 A3023 RMK A01 T01260048  RH  059%=      5-min Rain = 0
KPG1 082323Z 20001KT 13/05 A3023 RMK A01 T01270046  RH  058%=      5-min Rain = 0
KPG1 082324Z 18001KT 13/05 A3023 RMK A01 T01270046  RH  058%=      5-min Rain = 0
KPG1 082325Z 19000KT 13/05 A3023 RMK A01 T01260045  RH  058%=      5-min Rain = 0
KPG1 082326Z 17001KT 13/05 A3023 RMK A01 T01260045  RH  058%=      5-min Rain = 0
KPG1 082327Z 17002KT 13/05 A3023 RMK A01 T01250045  RH  058%=      5-min Rain = 0
KPG1 082328Z 17001KT 12/05 A3023 RMK A01 T01240045  RH  059%=      5-min Rain = 0
KPG1 082329Z 17000KT 12/05 A3023 RMK A01 T01230045  RH  059%=      5-min Rain = 0
KPG1 082330Z 19001KT 12/05 A3023 RMK A01 T01220048  RH  060%=      5-min Rain = 0
KPG1 082331Z 26000KT 12/05 A3023 RMK A01 T01230047  RH  060%=      5-min Rain = 0
KPG1 082332Z 27000KT 12/05 A3023 RMK A01 T01230048  RH  060%=      5-min Rain = 0
KPG1 082333Z 07000KT 12/05 A3023 RMK A01 T01220046  RH  060%=      5-min Rain = 0
KPG1 082334Z 07001KT 12/05 A3023 RMK A01 T01200045  RH  060%=      5-min Rain = 0
KPG1 082335Z 08002KT 12/05 A3023 RMK A01 T01180046  RH  061%=      5-min Rain = 0
KPG1 082336Z 07004KT 12/05 A3023 RMK A01 T01160047  RH  063%=      5-min Rain = 0
KPG1 082337Z 05003KT 11/05 A3023 RMK A01 T01140046  RH  063%=      5-min Rain = 0
KPG1 082338Z 06005KT 11/05 A3023 RMK A01 T01120046  RH  064%=      5-min Rain = 0
KPG1 082339Z 07008KT 11/05 A3023 RMK A01 T01110046  RH  064%=      5-min Rain = 0
KPG1 082340Z 07007KT 11/05 A3023 RMK A01 T01100047  RH  065%=      5-min Rain = 0
KPG1 082341Z 06006KT 11/05 A3023 RMK A01 T01090047  RH  065%=      5-min Rain = 0
KPG1 082342Z 06005KT 11/05 A3023 RMK A01 T01080047  RH  066%=      5-min Rain = 0
KPG1 082343Z 06005KT 11/05 A3023 RMK A01 T01080047  RH  066%=      5-min Rain = 0
KPG1 082344Z 07005KT 11/05 A3023 RMK A01 T01080048  RH  066%=      5-min Rain = 0
KPG1 082345Z 07005KT 11/05 A3023 RMK A01 T01070047  RH  066%=      5-min Rain = 0
KPG1 082346Z 07005KT 11/05 A3023 RMK A01 T01070048  RH  067%=      5-min Rain = 0
KPG1 082347Z 07005KT 11/05 A3023 RMK A01 T01070048  RH  067%=      5-min Rain = 0
KPG1 082348Z 06006KT 11/05 A3023 RMK A01 T01060049  RH  068%=      5-min Rain = 0
KPG1 082349Z 06007KT 11/05 A3023 RMK A01 T01050049  RH  068%=      5-min Rain = 0
KPG1 082350Z 06007KT 11/05 A3023 RMK A01 T01050049  RH  068%=      5-min Rain = 0
KPG1 082351Z 06006KT 11/05 A3023 RMK A01 T01050049  RH  068%=      5-min Rain = 0
KPG1 082352Z 06007KT 11/05 A3023 RMK A01 T01050049  RH  068%=      5-min Rain = 0
KPG1 082353Z 06007KT 10/05 A3023 RMK A01 T01040051  RH  069%=      5-min Rain = 0
KPG1 082354Z 06009KT 10/05 A3023 RMK A01 T01040051  RH  070%=      5-min Rain = 0
KPG1 082355Z 06008KT 10/05 A3023 RMK A01 T01030051  RH  070%=      5-min Rain = 0
KPG1 082356Z 06008KT 10/05 A3023 RMK A01 T01030051  RH  070%=      5-min Rain = 0
KPG1 082357Z 06008KT 10/05 A3023 RMK A01 T01030052  RH  071%=      5-min Rain = 0
KPG1 082358Z 06008KT 10/05 A3023 RMK A01 T01030052  RH  071%=      5-min Rain = 0
KPG1 082359Z 06008KT 10/05 A3023 RMK A01 T01020052  RH  071%=      5-min Rain = 0
KPG1 090000Z 07006KT 10/05 A3024 RMK A01 T01020052  RH  071%=      5-min Rain = 0
KPG1 090001Z 06006KT 10/05 A3024 RMK A01 T01020053  RH  071%=      5-min Rain = 0
KPG1 090002Z 06007KT 10/05 A3023 RMK A01 T01020053  RH  072%=      5-min Rain = 0
KPG1 090003Z 07007KT 10/05 A3023 RMK A01 T01020054  RH  072%=      5-min Rain = 0
KPG1 090004Z 07008KT 10/06 A3023 RMK A01 T01010055  RH  073%=      5-min Rain = 0
KPG1 090005Z 07009KT 10/06 A3023 RMK A01 T01010055  RH  073%=      5-min Rain = 0
KPG1 090006Z 06007KT 10/06 A3024 RMK A01 T01000055  RH  073%=      5-min Rain = 0
KPG1 090007Z 05008KT 10/05 A3024 RMK A01 T01000054  RH  073%=      5-min Rain = 0
KPG1 090008Z 06007KT 10/05 A3024 RMK A01 T01000054  RH  073%=      5-min Rain = 0
KPG1 090009Z 07006KT 10/05 A3024 RMK A01 T01000054  RH  073%=      5-min Rain = 0
KPG1 090010Z 07007KT 10/05 A3024 RMK A01 T01000054  RH  073%=      5-min Rain = 0
KPG1 090011Z 08008KT 10/05 A3024 RMK A01 T00990054  RH  074%=      5-min Rain = 0
KPG1 090012Z 08008KT 10/06 A3024 RMK A01 T00990055  RH  074%=      5-min Rain = 0
KPG1 090013Z 08008KT 10/06 A3024 RMK A01 T00990055  RH  074%=      5-min Rain = 0
KPG1 090014Z 08008KT 10/06 A3024 RMK A01 T00990055  RH  074%=      5-min Rain = 0
KPG1 090015Z 07006KT 10/06 A3024 RMK A01 T00990056  RH  075%=      5-min Rain = 0
KPG1 090016Z 08008KT 10/06 A3024 RMK A01 T00990056  RH  075%=      5-min Rain = 0
KPG1 090017Z 08005KT 10/06 A3024 RMK A01 T00980056  RH  075%=      5-min Rain = 0
KPG1 090018Z 07007KT 10/06 A3024 RMK A01 T00990056  RH  075%=      5-min Rain = 0
KPG1 090019Z 07007KT 10/06 A3024 RMK A01 T00980057  RH  075%=      5-min Rain = 0
KPG1 090020Z 07006KT 10/06 A3024 RMK A01 T00990057  RH  075%=      5-min Rain = 0
KPG1 090021Z 07007KT 10/06 A3024 RMK A01 T00990056  RH  075%=      5-min Rain = 0
KPG1 090022Z 07008KT 10/06 A3024 RMK A01 T00990058  RH  075%=      5-min Rain = 0
KPG1 090023Z 07008KT 10/06 A3024 RMK A01 T00990058  RH  076%=      5-min Rain = 0
KPG1 090024Z 07008KT 10/06 A3024 RMK A01 T00990058  RH  076%=      5-min Rain = 0
KPG1 090025Z 07007KT 10/06 A3024 RMK A01 T00980058  RH  076%=      5-min Rain = 0
KPG1 090026Z 07006KT 10/06 A3024 RMK A01 T00990059  RH  076%=      5-min Rain = 0
KPG1 090027Z 07007KT 10/06 A3024 RMK A01 T00980058  RH  076%=      5-min Rain = 0
KPG1 090028Z 07006KT 10/06 A3024 RMK A01 T00980058  RH  076%=      5-min Rain = 0
KPG1 090029Z 05005KT 10/06 A3024 RMK A01 T00980057  RH  076%=      5-min Rain = 0
KPG1 090030Z 04006KT 10/06 A3024 RMK A01 T00980058  RH  076%=      5-min Rain = 0
KPG1 090031Z 04006KT 10/06 A3024 RMK A01 T00970059  RH  077%=      5-min Rain = 0
KPG1 090032Z 06006KT 10/06 A3024 RMK A01 T00970059  RH  077%=      5-min Rain = 0
KPG1 090033Z 07007KT 10/06 A3024 RMK A01 T00970058  RH  077%=      5-min Rain = 0
KPG1 090034Z 07006KT 10/06 A3024 RMK A01 T00970057  RH  076%=      5-min Rain = 0
KPG1 090035Z 06006KT 10/06 A3025 RMK A01 T00970057  RH  076%=      5-min Rain = 0
KPG1 090036Z 05005KT 10/06 A3025 RMK A01 T00970057  RH  076%=      5-min Rain = 0
KPG1 090037Z 05005KT 10/06 A3025 RMK A01 T00970057  RH  076%=      5-min Rain = 0
KPG1 090038Z 05006KT 10/06 A3025 RMK A01 T00970058  RH  077%=      5-min Rain = 0
KPG1 090039Z 05006KT 10/06 A3025 RMK A01 T00980058  RH  076%=      5-min Rain = 0
KPG1 090040Z 05005KT 10/06 A3025 RMK A01 T00980058  RH  076%=      5-min Rain = 0
KPG1 090041Z 03005KT 10/06 A3025 RMK A01 T00980058  RH  076%=      5-min Rain = 0
KPG1 090042Z 36006KT 10/06 A3025 RMK A01 T00980060  RH  077%=      5-min Rain = 0
KPG1 090043Z 35007KT 10/06 A3025 RMK A01 T00980059  RH  077%=      5-min Rain = 0
KPG1 090044Z 35007KT 10/06 A3025 RMK A01 T00970059  RH  077%=      5-min Rain = 0
KPG1 090045Z 35006KT 10/06 A3025 RMK A01 T00980058  RH  076%=      5-min Rain = 0
KPG1 090046Z 35007KT 10/06 A3025 RMK A01 T00980059  RH  077%=      5-min Rain = 0
KPG1 090047Z 36007KT 10/06 A3025 RMK A01 T00980059  RH  077%=      5-min Rain = 0
KPG1 090048Z 01006KT 10/06 A3025 RMK A01 T00980059  RH  077%=      5-min Rain = 0
KPG1 090049Z 01006KT 10/06 A3025 RMK A01 T00980059  RH  077%=      5-min Rain = 0
KPG1 090050Z 01006KT 10/06 A3025 RMK A01 T00970058  RH  077%=      5-min Rain = 0
KPG1 090051Z 01007KT 10/06 A3025 RMK A01 T00970059  RH  077%=      5-min Rain = 0
KPG1 090052Z 01007KT 10/06 A3025 RMK A01 T00960059  RH  078%=      5-min Rain = 0
KPG1 090053Z 02006KT 10/06 A3025 RMK A01 T00960059  RH  078%=      5-min Rain = 0
KPG1 090054Z 02006KT 10/06 A3025 RMK A01 T00960060  RH  078%=      5-min Rain = 0
KPG1 090055Z 01008KT 10/06 A3025 RMK A01 T00950060  RH  079%=      5-min Rain = 0
KPG1 090056Z 02008KT 10/06 A3025 RMK A01 T00950060  RH  079%=      5-min Rain = 0
KPG1 090057Z 02007KT 10/06 A3025 RMK A01 T00950060  RH  079%=      5-min Rain = 0
KPG1 090058Z 02008KT 10/06 A3025 RMK A01 T00950061  RH  079%=      5-min Rain = 0
KPG1 090059Z 02008KT 10/06 A3025 RMK A01 T00950061  RH  079%=      5-min Rain = 0
KPG1 090100Z 03007KT 10/06 A3025 RMK A01 T00950062  RH  080%=      5-min Rain = 0
KPG1 090101Z 02007KT 09/06 A3025 RMK A01 T00940062  RH  080%=      5-min Rain = 0
KPG1 090102Z 02008KT 09/06 A3025 RMK A01 T00940062  RH  080%=      5-min Rain = 0
KPG1 090103Z 02007KT 09/06 A3025 RMK A01 T00940063  RH  081%=      5-min Rain = 0
KPG1 090104Z 01008KT 09/06 A3025 RMK A01 T00940063  RH  081%=      5-min Rain = 0
KPG1 090105Z 01009KT 09/06 A3025 RMK A01 T00940063  RH  081%=      5-min Rain = 0
KPG1 090106Z 01007KT 09/06 A3025 RMK A01 T00940063  RH  081%=      5-min Rain = 0
KPG1 090107Z 01007KT 09/06 A3025 RMK A01 T00940063  RH  081%=      5-min Rain = 0
KPG1 090108Z 01007KT 09/06 A3025 RMK A01 T00930063  RH  081%=      5-min Rain = 0
KPG1 090109Z 00007KT 09/06 A3025 RMK A01 T00930063  RH  081%=      5-min Rain = 0
KPG1 090110Z 00008KT 09/06 A3025 RMK A01 T00940062  RH  081%=      5-min Rain = 0
KPG1 090111Z 00007KT 09/06 A3025 RMK A01 T00930061  RH  080%=      5-min Rain = 0
KPG1 090112Z 00008KT 09/06 A3025 RMK A01 T00930062  RH  081%=      5-min Rain = 0
KPG1 090113Z 00008KT 09/06 A3025 RMK A01 T00930062  RH  081%=      5-min Rain = 0
KPG1 090114Z 00008KT 09/06 A3025 RMK A01 T00940063  RH  081%=      5-min Rain = 0
KPG1 090115Z 00009KT 09/06 A3025 RMK A01 T00930063  RH  081%=      5-min Rain = 0
KPG1 090116Z 01008KT 09/06 A3025 RMK A01 T00930064  RH  082%=      5-min Rain = 0
KPG1 090117Z 01008KT 09/06 A3025 RMK A01 T00920063  RH  082%=      5-min Rain = 0
KPG1 090118Z 01007KT 09/06 A3025 RMK A01 T00930064  RH  082%=      5-min Rain = 0
KPG1 090119Z 01007KT 09/06 A3025 RMK A01 T00930064  RH  083%=      5-min Rain = 0
KPG1 090120Z 01007KT 09/06 A3025 RMK A01 T00920064  RH  083%=      5-min Rain = 0
KPG1 090121Z 00008KT 09/06 A3025 RMK A01 T00920064  RH  082%=      5-min Rain = 0
KPG1 090122Z 01008KT 09/06 A3025 RMK A01 T00920063  RH  082%=      5-min Rain = 0
KPG1 090123Z 01009KT 09/06 A3025 RMK A01 T00920063  RH  082%=      5-min Rain = 0
KPG1 090124Z 00008KT 09/06 A3025 RMK A01 T00920061  RH  081%=      5-min Rain = 0
KPG1 090125Z 00009KT 09/06 A3025 RMK A01 T00930062  RH  081%=      5-min Rain = 0
KPG1 090126Z 00008KT 09/06 A3026 RMK A01 T00920061  RH  081%=      5-min Rain = 0
KPG1 090127Z 01007KT 09/06 A3026 RMK A01 T00930061  RH  080%=      5-min Rain = 0
KPG1 090128Z 01007KT 09/06 A3026 RMK A01 T00930060  RH  080%=      5-min Rain = 0
KPG1 090129Z 01008KT 09/06 A3026 RMK A01 T00930060  RH  080%=      5-min Rain = 0
KPG1 090130Z 01007KT 09/06 A3026 RMK A01 T00930060  RH  080%=      5-min Rain = 0
KPG1 090131Z 03007KT 09/06 A3026 RMK A01 T00930061  RH  081%=      5-min Rain = 0
KPG1 090132Z 03007KT 09/06 A3026 RMK A01 T00930062  RH  081%=      5-min Rain = 0
KPG1 090133Z 03008KT 09/06 A3026 RMK A01 T00920063  RH  082%=      5-min Rain = 0
KPG1 090134Z 03007KT 09/06 A3026 RMK A01 T00920063  RH  082%=      5-min Rain = 0
KPG1 090135Z 03006KT 09/06 A3026 RMK A01 T00920063  RH  082%=      5-min Rain = 0
KPG1 090136Z 03006KT 09/06 A3026 RMK A01 T00920063  RH  082%=      5-min Rain = 0
KPG1 090137Z 03006KT 09/06 A3026 RMK A01 T00920064  RH  083%=      5-min Rain = 0
KPG1 090138Z 02005KT 09/07 A3026 RMK A01 T00910065  RH  083%=      5-min Rain = 0
KPG1 090139Z 02006KT 09/06 A3026 RMK A01 T00910064  RH  083%=      5-min Rain = 0
KPG1 090140Z 03007KT 09/06 A3026 RMK A01 T00910064  RH  083%=      5-min Rain = 0
KPG1 090141Z 02007KT 09/06 A3026 RMK A01 T00910063  RH  082%=      5-min Rain = 0
KPG1 090142Z 02007KT 09/06 A3026 RMK A01 T00920062  RH  082%=      5-min Rain = 0
KPG1 090143Z 01007KT 09/06 A3026 RMK A01 T00920061  RH  081%=      5-min Rain = 0
KPG1 090144Z 01008KT 09/06 A3026 RMK A01 T00930061  RH  081%=      5-min Rain = 0
KPG1 090145Z 01008KT 09/06 A3026 RMK A01 T00930060  RH  080%=      5-min Rain = 0
KPG1 090146Z 01007KT 09/06 A3026 RMK A01 T00930060  RH  080%=      5-min Rain = 0
KPG1 090147Z 01006KT 09/06 A3026 RMK A01 T00930060  RH  080%=      5-min Rain = 0
KPG1 090148Z 01007KT 09/06 A3026 RMK A01 T00930061  RH  080%=      5-min Rain = 0
KPG1 090149Z 01008KT 09/06 A3026 RMK A01 T00930060  RH  080%=      5-min Rain = 0
KPG1 090150Z 01008KT 09/06 A3026 RMK A01 T00930059  RH  079%=      5-min Rain = 0
KPG1 090151Z 01008KT 09/06 A3026 RMK A01 T00930059  RH  079%=      5-min Rain = 0
KPG1 090152Z 01007KT 09/06 A3026 RMK A01 T00930060  RH  079%=      5-min Rain = 0
KPG1 090153Z 01008KT 09/06 A3026 RMK A01 T00930060  RH  080%=      5-min Rain = 0
KPG1 090154Z 02008KT 09/06 A3026 RMK A01 T00930061  RH  080%=      5-min Rain = 0
KPG1 090155Z 02009KT 09/06 A3026 RMK A01 T00930061  RH  081%=      5-min Rain = 0
KPG1 090156Z 02008KT 09/06 A3026 RMK A01 T00930062  RH  081%=      5-min Rain = 0
KPG1 090157Z 02008KT 09/06 A3026 RMK A01 T00930063  RH  081%=      5-min Rain = 0
KPG1 090158Z 02008KT 09/06 A3027 RMK A01 T00930063  RH  082%=      5-min Rain = 0
KPG1 090159Z 02009KT 09/06 A3027 RMK A01 T00920063  RH  082%=      5-min Rain = 0
KPG1 090200Z 02008KT 09/06 A3027 RMK A01 T00920063  RH  082%=      5-min Rain = 0
KPG1 090201Z 01008KT 09/06 A3027 RMK A01 T00920063  RH  082%=      5-min Rain = 0
KPG1 090202Z 02009KT 09/06 A3027 RMK A01 T00920063  RH  082%=      5-min Rain = 0
KPG1 090203Z 02009KT 09/06 A3027 RMK A01 T00920064  RH  082%=      5-min Rain = 0
KPG1 090204Z 02009KT 09/06 A3027 RMK A01 T00910064  RH  083%=      5-min Rain = 0
KPG1 090205Z 02009KT 09/06 A3027 RMK A01 T00910064  RH  083%=      5-min Rain = 0
KPG1 090206Z 01009KT 09/06 A3027 RMK A01 T00910064  RH  083%=      5-min Rain = 0
KPG1 090207Z 01009KT 09/06 A3027 RMK A01 T00910063  RH  083%=      5-min Rain = 0
KPG1 090208Z 02009KT 09/06 A3027 RMK A01 T00910062  RH  083%=      5-min Rain = 0
KPG1 090209Z 02008KT 09/06 A3027 RMK A01 T00910063  RH  083%=      5-min Rain = 0
KPG1 090210Z 01008KT 09/06 A3027 RMK A01 T00900063  RH  083%=      5-min Rain = 0
KPG1 090211Z 02008KT 09/06 A3027 RMK A01 T00900063  RH  083%=      5-min Rain = 0
KPG1 090212Z 02009KT 09/06 A3027 RMK A01 T00900064  RH  084%=      5-min Rain = 0
KPG1 090213Z 02009KT 09/06 A3027 RMK A01 T00900064  RH  084%=      5-min Rain = 0
KPG1 090214Z 02009KT 09/06 A3027 RMK A01 T00900063  RH  083%=      5-min Rain = 0
KPG1 090215Z 02008KT 09/06 A3027 RMK A01 T00900063  RH  083%=      5-min Rain = 0
KPG1 090216Z 02008KT 09/06 A3027 RMK A01 T00900064  RH  084%=      5-min Rain = 0
KPG1 090217Z 02009KT 09/06 A3027 RMK A01 T00890064  RH  084%=      5-min Rain = 0
KPG1 090218Z 02009KT 09/07 A3027 RMK A01 T00890065  RH  085%=      5-min Rain = 0
KPG1 090219Z 02008KT 09/07 A3027 RMK A01 T00890065  RH  085%=      5-min Rain = 0
KPG1 090220Z 02009KT 09/07 A3027 RMK A01 T00890065  RH  085%=      5-min Rain = 0
KPG1 090221Z 02009KT 09/07 A3027 RMK A01 T00890065  RH  085%=      5-min Rain = 0
KPG1 090222Z 02009KT 09/07 A3027 RMK A01 T00890065  RH  085%=      5-min Rain = 0
KPG1 090223Z 02010KT 09/07 A3027 RMK A01 T00890065  RH  085%=      5-min Rain = 0
KPG1 090224Z 02009KT 09/07 A3027 RMK A01 T00890065  RH  085%=      5-min Rain = 0
KPG1 090225Z 02009KT 09/07 A3027 RMK A01 T00890066  RH  086%=      5-min Rain = 0
KPG1 090226Z 03010KT 09/07 A3027 RMK A01 T00890067  RH  086%=      5-min Rain = 0
KPG1 090227Z 03010KT 09/07 A3028 RMK A01 T00880066  RH  086%=      5-min Rain = 0
KPG1 090228Z 03009KT 09/07 A3028 RMK A01 T00890067  RH  086%=      5-min Rain = 0
KPG1 090229Z 03009KT 09/07 A3028 RMK A01 T00880067  RH  087%=      5-min Rain = 0
KPG1 090230Z 03008KT 09/07 A3028 RMK A01 T00880068  RH  087%=      5-min Rain = 0
KPG1 090231Z 03009KT 09/07 A3028 RMK A01 T00870068  RH  088%=      5-min Rain = 0
KPG1 090232Z 03009KT 09/07 A3028 RMK A01 T00870068  RH  088%=      5-min Rain = 0
KPG1 090233Z 03009KT 09/07 A3028 RMK A01 T00870068  RH  088%=      5-min Rain = 0
KPG1 090234Z 03009KT 09/07 A3028 RMK A01 T00870068  RH  088%=      5-min Rain = 0
KPG1 090235Z 03009KT 09/07 A3028 RMK A01 T00860067  RH  088%=      5-min Rain = 0
KPG1 090236Z 03009KT 09/07 A3028 RMK A01 T00860065  RH  087%=      5-min Rain = 0
KPG1 090237Z 03009KT 09/07 A3028 RMK A01 T00860065  RH  086%=      5-min Rain = 0
KPG1 090238Z 03008KT 09/06 A3028 RMK A01 T00860064  RH  086%=      5-min Rain = 0
KPG1 090239Z 03009KT 09/06 A3028 RMK A01 T00860064  RH  086%=      5-min Rain = 0
KPG1 090240Z 03008KT 09/06 A3028 RMK A01 T00860064  RH  086%=      5-min Rain = 0
KPG1 090241Z 03008KT 09/07 A3028 RMK A01 T00860065  RH  086%=      5-min Rain = 0
KPG1 090242Z 03009KT 09/06 A3028 RMK A01 T00860064  RH  086%=      5-min Rain = 0
KPG1 090243Z 03009KT 09/06 A3028 RMK A01 T00860064  RH  086%=      5-min Rain = 0
KPG1 090244Z 04008KT 09/06 A3028 RMK A01 T00850063  RH  086%=      5-min Rain = 0
KPG1 090245Z 03008KT 09/06 A3028 RMK A01 T00850063  RH  086%=      5-min Rain = 0
KPG1 090246Z 03008KT 08/06 A3028 RMK A01 T00840063  RH  087%=      5-min Rain = 0
KPG1 090247Z 03008KT 08/06 A3028 RMK A01 T00840063  RH  087%=      5-min Rain = 0
KPG1 090248Z 03009KT 08/06 A3028 RMK A01 T00830064  RH  088%=      5-min Rain = 0
KPG1 090249Z 02008KT 08/06 A3028 RMK A01 T00830064  RH  088%=      5-min Rain = 0
KPG1 090250Z 02008KT 08/06 A3028 RMK A01 T00830064  RH  088%=      5-min Rain = 0
KPG1 090251Z 02009KT 08/06 A3028 RMK A01 T00820064  RH  089%=      5-min Rain = 0
KPG1 090252Z 03009KT 08/06 A3028 RMK A01 T00810064  RH  089%=      5-min Rain = 0
KPG1 090253Z 03008KT 08/06 A3028 RMK A01 T00810064  RH  089%=      5-min Rain = 0
KPG1 090254Z 03008KT 08/07 A3028 RMK A01 T00810065  RH  090%=      5-min Rain = 0
KPG1 090255Z 03008KT 08/07 A3028 RMK A01 T00800065  RH  090%=      5-min Rain = 0
KPG1 090256Z 03008KT 08/07 A3028 RMK A01 T00800065  RH  090%=      5-min Rain = 0
KPG1 090257Z 02008KT 08/07 A3028 RMK A01 T00790065  RH  090%=      5-min Rain = 0
KPG1 090258Z 02008KT 08/06 A3028 RMK A01 T00790064  RH  090%=      5-min Rain = 0
KPG1 090259Z 02008KT 08/06 A3028 RMK A01 T00780064  RH  091%=      5-min Rain = 0
KPG1 090300Z 02008KT 08/06 A3028 RMK A01 T00780064  RH  091%=      5-min Rain = 0
KPG1 090301Z 03008KT 08/06 A3028 RMK A01 T00780064  RH  091%=      5-min Rain = 0
KPG1 090302Z 02008KT 08/06 A3028 RMK A01 T00780064  RH  091%=      5-min Rain = 0
KPG1 090303Z 02008KT 08/06 A3028 RMK A01 T00770063  RH  091%=      5-min Rain = 0
KPG1 090304Z 02008KT 08/06 A3028 RMK A01 T00770063  RH  091%=      5-min Rain = 0
KPG1 090305Z 02009KT 08/06 A3028 RMK A01 T00770062  RH  091%=      5-min Rain = 0
KPG1 090306Z 02009KT 08/06 A3028 RMK A01 T00770062  RH  090%=      5-min Rain = 0
KPG1 090307Z 02009KT 08/06 A3028 RMK A01 T00770061  RH  089%=      5-min Rain = 0
KPG1 090308Z 02009KT 08/06 A3028 RMK A01 T00780061  RH  089%=      5-min Rain = 0
KPG1 090309Z 01009KT 08/06 A3028 RMK A01 T00780060  RH  088%=      5-min Rain = 0
KPG1 090310Z 01009KT 08/06 A3028 RMK A01 T00790059  RH  087%=      5-min Rain = 0
KPG1 090311Z 01009KT 08/06 A3028 RMK A01 T00790059  RH  087%=      5-min Rain = 0
KPG1 090312Z 01009KT 08/06 A3028 RMK A01 T00790058  RH  087%=      5-min Rain = 0
KPG1 090313Z 01009KT 08/06 A3028 RMK A01 T00790058  RH  086%=      5-min Rain = 0
KPG1 090314Z 02008KT 08/06 A3028 RMK A01 T00790057  RH  086%=      5-min Rain = 0
KPG1 090315Z 02008KT 08/06 A3028 RMK A01 T00790057  RH  086%=      5-min Rain = 0
KPG1 090316Z 01008KT 08/06 A3028 RMK A01 T00790057  RH  086%=      5-min Rain = 0
KPG1 090317Z 01008KT 08/06 A3028 RMK A01 T00790058  RH  086%=      5-min Rain = 0
KPG1 090318Z 01008KT 08/06 A3028 RMK A01 T00790057  RH  086%=      5-min Rain = 0
KPG1 090319Z 01008KT 08/06 A3028 RMK A01 T00790058  RH  087%=      5-min Rain = 0
KPG1 090320Z 02008KT 08/06 A3028 RMK A01 T00790058  RH  087%=      5-min Rain = 0
KPG1 090321Z 01008KT 08/06 A3028 RMK A01 T00780057  RH  087%=      5-min Rain = 0
KPG1 090322Z 01008KT 08/06 A3028 RMK A01 T00780057  RH  087%=      5-min Rain = 0
KPG1 090323Z 01008KT 08/06 A3028 RMK A01 T00780057  RH  087%=      5-min Rain = 0
KPG1 090324Z 01009KT 08/06 A3028 RMK A01 T00770057  RH  087%=      5-min Rain = 0
KPG1 090325Z 01009KT 08/06 A3028 RMK A01 T00770057  RH  087%=      5-min Rain = 0
KPG1 090326Z 02009KT 08/06 A3028 RMK A01 T00770056  RH  087%=      5-min Rain = 0
KPG1 090327Z 01009KT 08/06 A3028 RMK A01 T00770056  RH  087%=      5-min Rain = 0
KPG1 090328Z 01009KT 08/06 A3028 RMK A01 T00770056  RH  087%=      5-min Rain = 0
KPG1 090329Z 01010KT 08/06 A3029 RMK A01 T00760056  RH  087%=      5-min Rain = 0
KPG1 090330Z 01009KT 08/06 A3028 RMK A01 T00760056  RH  087%=      5-min Rain = 0
KPG1 090331Z 01009KT 08/06 A3029 RMK A01 T00760056  RH  087%=      5-min Rain = 0
KPG1 090332Z 01008KT 08/06 A3029 RMK A01 T00750056  RH  087%=      5-min Rain = 0
KPG1 090333Z 01008KT 08/06 A3029 RMK A01 T00750055  RH  087%=      5-min Rain = 0
KPG1 090334Z 01009KT 07/06 A3029 RMK A01 T00740055  RH  087%=      5-min Rain = 0
KPG1 090335Z 01009KT 08/06 A3029 RMK A01 T00750055  RH  088%=      5-min Rain = 0
KPG1 090336Z 01009KT 07/06 A3029 RMK A01 T00740055  RH  087%=      5-min Rain = 0
KPG1 090337Z 01009KT 07/06 A3029 RMK A01 T00740055  RH  087%=      5-min Rain = 0
KPG1 090338Z 02007KT 07/05 A3029 RMK A01 T00740054  RH  087%=      5-min Rain = 0
KPG1 090339Z 01008KT 08/06 A3029 RMK A01 T00750055  RH  087%=      5-min Rain = 0
KPG1 090340Z 01008KT 07/06 A3029 RMK A01 T00740055  RH  087%=      5-min Rain = 0
KPG1 090341Z 02009KT 07/05 A3029 RMK A01 T00740054  RH  087%=      5-min Rain = 0
KPG1 090342Z 01009KT 07/05 A3029 RMK A01 T00740054  RH  087%=      5-min Rain = 0
KPG1 090343Z 02009KT 07/05 A3029 RMK A01 T00740053  RH  087%=      5-min Rain = 0
KPG1 090344Z 01008KT 07/05 A3029 RMK A01 T00740053  RH  086%=      5-min Rain = 0
KPG1 090345Z 02008KT 07/05 A3029 RMK A01 T00740053  RH  086%=      5-min Rain = 0
KPG1 090346Z 02008KT 07/05 A3029 RMK A01 T00740052  RH  086%=      5-min Rain = 0
KPG1 090347Z 02008KT 07/05 A3029 RMK A01 T00740052  RH  086%=      5-min Rain = 0
KPG1 090348Z 02008KT 07/05 A3029 RMK A01 T00740052  RH  086%=      5-min Rain = 0
KPG1 090349Z 02008KT 07/05 A3029 RMK A01 T00740052  RH  086%=      5-min Rain = 0
KPG1 090350Z 02008KT 07/05 A3029 RMK A01 T00740051  RH  086%=      5-min Rain = 0
KPG1 090351Z 02007KT 07/05 A3029 RMK A01 T00740052  RH  086%=      5-min Rain = 0
KPG1 090352Z 02007KT 07/05 A3029 RMK A01 T00730052  RH  086%=      5-min Rain = 0
KPG1 090353Z 02007KT 07/05 A3029 RMK A01 T00720052  RH  087%=      5-min Rain = 0
KPG1 090354Z 01008KT 07/05 A3029 RMK A01 T00720052  RH  087%=      5-min Rain = 0
KPG1 090355Z 02007KT 07/05 A3029 RMK A01 T00720052  RH  087%=      5-min Rain = 0
KPG1 090356Z 02007KT 07/05 A3029 RMK A01 T00720052  RH  087%=      5-min Rain = 0
KPG1 090357Z 02007KT 07/05 A3029 RMK A01 T00720052  RH  087%=      5-min Rain = 0
KPG1 090358Z 02007KT 07/05 A3029 RMK A01 T00720051  RH  087%=      5-min Rain = 0
KPG1 090359Z 02007KT 07/05 A3029 RMK A01 T00720051  RH  086%=      5-min Rain = 0
KPG1 090400Z 02006KT 07/05 A3029 RMK A01 T00720051  RH  086%=      5-min Rain = 0
KPG1 090401Z 02006KT 07/05 A3029 RMK A01 T00720051  RH  086%=      5-min Rain = 0
KPG1 090402Z 01007KT 07/05 A3029 RMK A01 T00710050  RH  087%=      5-min Rain = 0
KPG1 090403Z 02007KT 07/05 A3029 RMK A01 T00710051  RH  087%=      5-min Rain = 0
KPG1 090404Z 01007KT 07/05 A3029 RMK A01 T00710051  RH  087%=      5-min Rain = 0
KPG1 090405Z 01007KT 07/05 A3029 RMK A01 T00710051  RH  087%=      5-min Rain = 0
KPG1 090406Z 01007KT 07/05 A3029 RMK A01 T00710050  RH  087%=      5-min Rain = 0
KPG1 090407Z 01007KT 07/05 A3029 RMK A01 T00710050  RH  087%=      5-min Rain = 0
KPG1 090408Z 02006KT 07/05 A3029 RMK A01 T00710050  RH  087%=      5-min Rain = 0
KPG1 090409Z 02006KT 07/05 A3029 RMK A01 T00710051  RH  087%=      5-min Rain = 0
KPG1 090410Z 02006KT 07/05 A3029 RMK A01 T00710050  RH  087%=      5-min Rain = 0
KPG1 090411Z 02006KT 07/05 A3029 RMK A01 T00710050  RH  087%=      5-min Rain = 0
KPG1 090412Z 01006KT 07/05 A3029 RMK A01 T00710050  RH  087%=      5-min Rain = 0
KPG1 090413Z 02006KT 07/05 A3029 RMK A01 T00710050  RH  086%=      5-min Rain = 0
KPG1 090414Z 02007KT 07/05 A3029 RMK A01 T00710049  RH  086%=      5-min Rain = 0
KPG1 090415Z 02006KT 07/05 A3029 RMK A01 T00710049  RH  086%=      5-min Rain = 0
KPG1 090416Z 01006KT 07/05 A3029 RMK A01 T00710048  RH  085%=      5-min Rain = 0
KPG1 090417Z 01007KT 07/05 A3029 RMK A01 T00710048  RH  085%=      5-min Rain = 0
KPG1 090418Z 01007KT 07/05 A3029 RMK A01 T00710048  RH  085%=      5-min Rain = 0
KPG1 090419Z 02007KT 07/05 A3029 RMK A01 T00710047  RH  085%=      5-min Rain = 0
KPG1 090420Z 01007KT 07/05 A3029 RMK A01 T00720047  RH  084%=      5-min Rain = 0
KPG1 090421Z 02006KT 07/05 A3029 RMK A01 T00720047  RH  084%=      5-min Rain = 0
KPG1 090422Z 02007KT 07/05 A3029 RMK A01 T00720047  RH  084%=      5-min Rain = 0
KPG1 090423Z 02007KT 07/05 A3029 RMK A01 T00720047  RH  085%=      5-min Rain = 0
KPG1 090424Z 02007KT 07/05 A3029 RMK A01 T00710048  RH  085%=      5-min Rain = 0
KPG1 090425Z 02007KT 07/05 A3029 RMK A01 T00710048  RH  085%=      5-min Rain = 0
KPG1 090426Z 02006KT 07/05 A3029 RMK A01 T00710048  RH  085%=      5-min Rain = 0
KPG1 090427Z 02006KT 07/05 A303 RMK A01 T00710048  RH  085%=      5-min Rain = 0
KPG1 090428Z 03005KT 07/05 A303 RMK A01 T00700048  RH  085%=      5-min Rain = 0
KPG1 090429Z 03005KT 07/05 A303 RMK A01 T00680047  RH  087%=      5-min Rain = 0
KPG1 090430Z 02005KT 07/05 A303 RMK A01 T00660047  RH  088%=      5-min Rain = 0
KPG1 090431Z 03005KT 07/05 A303 RMK A01 T00650047  RH  089%=      5-min Rain = 0
KPG1 090432Z 03005KT 06/05 A303 RMK A01 T00640048  RH  090%=      5-min Rain = 0
KPG1 090433Z 03005KT 06/05 A303 RMK A01 T00630048  RH  090%=      5-min Rain = 0
KPG1 090434Z 03005KT 06/05 A303 RMK A01 T00630049  RH  091%=      5-min Rain = 0
KPG1 090435Z 03005KT 06/05 A303 RMK A01 T00630049  RH  091%=      5-min Rain = 0
KPG1 090436Z 03005KT 06/05 A303 RMK A01 T00630049  RH  091%=      5-min Rain = 0
KPG1 090437Z 04005KT 06/05 A303 RMK A01 T00630049  RH  091%=      5-min Rain = 0
KPG1 090438Z 03005KT 06/05 A303 RMK A01 T00620049  RH  091%=      5-min Rain = 0
KPG1 090439Z 02005KT 06/05 A303 RMK A01 T00620049  RH  091%=      5-min Rain = 0
KPG1 090440Z 03005KT 06/05 A303 RMK A01 T00620049  RH  091%=      5-min Rain = 0
KPG1 090441Z 04005KT 06/05 A303 RMK A01 T00620049  RH  091%=      5-min Rain = 0
KPG1 090442Z 03006KT 06/05 A303 RMK A01 T00610049  RH  092%=      5-min Rain = 0
KPG1 090443Z 02006KT 06/05 A303 RMK A01 T00620049  RH  092%=      5-min Rain = 0
KPG1 090444Z 03005KT 06/05 A303 RMK A01 T00620050  RH  092%=      5-min Rain = 0
KPG1 090445Z 02006KT 06/05 A303 RMK A01 T00610049  RH  092%=      5-min Rain = 0
KPG1 090446Z 02006KT 06/05 A303 RMK A01 T00610049  RH  092%=      5-min Rain = 0
KPG1 090447Z 02006KT 06/05 A303 RMK A01 T00610049  RH  092%=      5-min Rain = 0
KPG1 090448Z 02006KT 06/05 A303 RMK A01 T00610049  RH  092%=      5-min Rain = 0
KPG1 090449Z 02006KT 06/05 A303 RMK A01 T00620049  RH  092%=      5-min Rain = 0
KPG1 090450Z 02005KT 06/05 A303 RMK A01 T00620049  RH  092%=      5-min Rain = 0
KPG1 090451Z 02005KT 06/05 A303 RMK A01 T00610049  RH  092%=      5-min Rain = 0
KPG1 090452Z 03006KT 06/05 A303 RMK A01 T00620049  RH  092%=      5-min Rain = 0
KPG1 090453Z 03006KT 06/05 A303 RMK A01 T00610049  RH  092%=      5-min Rain = 0
KPG1 090454Z 03006KT 06/05 A303 RMK A01 T00610049  RH  092%=      5-min Rain = 0
KPG1 090455Z 03006KT 06/05 A303 RMK A01 T00610049  RH  092%=      5-min Rain = 0
KPG1 090456Z 03006KT 06/05 A303 RMK A01 T00610049  RH  092%=      5-min Rain = 0
KPG1 090457Z 04006KT 06/05 A303 RMK A01 T00610049  RH  092%=      5-min Rain = 0
KPG1 090458Z 04006KT 06/05 A303 RMK A01 T00610049  RH  092%=      5-min Rain = 0
KPG1 090459Z 04007KT 06/05 A303 RMK A01 T00610049  RH  091%=      5-min Rain = 0
KPG1 090500Z 03007KT 06/05 A303 RMK A01 T00620049  RH  091%=      5-min Rain = 0
KPG1 090501Z 03006KT 06/05 A303 RMK A01 T00620049  RH  091%=      5-min Rain = 0
KPG1 090502Z 03006KT 06/05 A303 RMK A01 T00620048  RH  091%=      5-min Rain = 0
KPG1 090503Z 03006KT 06/05 A303 RMK A01 T00620048  RH  091%=      5-min Rain = 0
KPG1 090504Z 04006KT 06/05 A303 RMK A01 T00620048  RH  091%=      5-min Rain = 0
KPG1 090505Z 03006KT 06/05 A303 RMK A01 T00620048  RH  091%=      5-min Rain = 0
KPG1 090506Z 03006KT 06/05 A303 RMK A01 T00620048  RH  091%=      5-min Rain = 0
KPG1 090507Z 03006KT 06/05 A303 RMK A01 T00610047  RH  091%=      5-min Rain = 0
KPG1 090508Z 04006KT 06/05 A303 RMK A01 T00610048  RH  091%=      5-min Rain = 0
KPG1 090509Z 04005KT 06/05 A303 RMK A01 T00610047  RH  091%=      5-min Rain = 0
KPG1 090510Z 04005KT 06/05 A303 RMK A01 T00600048  RH  092%=      5-min Rain = 0
KPG1 090511Z 03005KT 06/05 A303 RMK A01 T00600047  RH  092%=      5-min Rain = 0
KPG1 090512Z 03005KT 06/05 A303 RMK A01 T00600047  RH  092%=      5-min Rain = 0
KPG1 090513Z 04005KT 06/05 A303 RMK A01 T00600048  RH  092%=      5-min Rain = 0
KPG1 090514Z 04005KT 06/05 A303 RMK A01 T00600048  RH  092%=      5-min Rain = 0
KPG1 090515Z 05004KT 06/05 A303 RMK A01 T00600048  RH  092%=      5-min Rain = 0
KPG1 090516Z 04004KT 06/05 A303 RMK A01 T00600047  RH  091%=      5-min Rain = 0
KPG1 090517Z 04004KT 06/05 A303 RMK A01 T00610048  RH  091%=      5-min Rain = 0
KPG1 090518Z 04004KT 06/05 A303 RMK A01 T00600047  RH  091%=      5-min Rain = 0
KPG1 090519Z 04005KT 06/05 A303 RMK A01 T00600047  RH  091%=      5-min Rain = 0
KPG1 090520Z 04005KT 06/05 A303 RMK A01 T00600047  RH  091%=      5-min Rain = 0
KPG1 090521Z 04006KT 06/05 A303 RMK A01 T00600047  RH  092%=      5-min Rain = 0
KPG1 090522Z 04006KT 06/05 A303 RMK A01 T00600047  RH  091%=      5-min Rain = 0
KPG1 090523Z 04006KT 06/05 A303 RMK A01 T00610047  RH  091%=      5-min Rain = 0
KPG1 090524Z 03005KT 06/05 A303 RMK A01 T00610047  RH  091%=      5-min Rain = 0
KPG1 090525Z 03005KT 06/05 A303 RMK A01 T00610047  RH  091%=      5-min Rain = 0
KPG1 090526Z 03005KT 06/05 A303 RMK A01 T00610047  RH  091%=      5-min Rain = 0
KPG1 090527Z 03005KT 06/05 A303 RMK A01 T00610047  RH  091%=      5-min Rain = 0
KPG1 090528Z 03005KT 06/05 A303 RMK A01 T00610047  RH  091%=      5-min Rain = 0
KPG1 090529Z 03005KT 06/05 A303 RMK A01 T00610047  RH  091%=      5-min Rain = 0
KPG1 090530Z 03005KT 06/05 A303 RMK A01 T00610047  RH  091%=      5-min Rain = 0
KPG1 090531Z 04004KT 06/05 A303 RMK A01 T00610047  RH  091%=      5-min Rain = 0
KPG1 090532Z 03004KT 06/05 A303 RMK A01 T00610047  RH  090%=      5-min Rain = 0
KPG1 090533Z 03004KT 06/05 A303 RMK A01 T00610046  RH  090%=      5-min Rain = 0
KPG1 090534Z 02004KT 06/05 A303 RMK A01 T00600046  RH  090%=      5-min Rain = 0
KPG1 090535Z 02005KT 06/05 A303 RMK A01 T00610046  RH  090%=      5-min Rain = 0
KPG1 090536Z 02005KT 06/05 A303 RMK A01 T00620047  RH  090%=      5-min Rain = 0
KPG1 090537Z 02004KT 06/05 A303 RMK A01 T00630046  RH  089%=      5-min Rain = 0
KPG1 090538Z 02004KT 06/05 A303 RMK A01 T00640046  RH  089%=      5-min Rain = 0
KPG1 090539Z 02004KT 06/05 A303 RMK A01 T00640046  RH  088%=      5-min Rain = 0
KPG1 090540Z 02004KT 06/05 A303 RMK A01 T00640046  RH  088%=      5-min Rain = 0
KPG1 090541Z 02004KT 06/05 A303 RMK A01 T00640045  RH  088%=      5-min Rain = 0
KPG1 090542Z 01004KT 06/05 A303 RMK A01 T00630045  RH  088%=      5-min Rain = 0
KPG1 090543Z 01005KT 06/05 A303 RMK A01 T00630045  RH  088%=      5-min Rain = 0
KPG1 090544Z 00004KT 06/05 A303 RMK A01 T00630045  RH  089%=      5-min Rain = 0
KPG1 090545Z 02004KT 06/05 A303 RMK A01 T00630046  RH  089%=      5-min Rain = 0
KPG1 090546Z 01005KT 06/05 A303 RMK A01 T00640046  RH  088%=      5-min Rain = 0
KPG1 090547Z 01005KT 06/05 A303 RMK A01 T00640045  RH  088%=      5-min Rain = 0
KPG1 090548Z 01005KT 06/05 A303 RMK A01 T00630045  RH  088%=      5-min Rain = 0
KPG1 090549Z 01005KT 06/04 A303 RMK A01 T00630044  RH  088%=      5-min Rain = 0
KPG1 090550Z 01005KT 06/05 A303 RMK A01 T00630045  RH  089%=      5-min Rain = 0
KPG1 090551Z 01005KT 06/05 A303 RMK A01 T00630045  RH  088%=      5-min Rain = 0
KPG1 090552Z 01004KT 06/04 A303 RMK A01 T00630044  RH  088%=      5-min Rain = 0
KPG1 090553Z 01005KT 06/05 A303 RMK A01 T00630045  RH  088%=      5-min Rain = 0
KPG1 090554Z 01004KT 06/05 A303 RMK A01 T00630045  RH  088%=      5-min Rain = 0
KPG1 090555Z 02005KT 06/05 A303 RMK A01 T00630045  RH  088%=      5-min Rain = 0
KPG1 090556Z 01003KT 06/05 A303 RMK A01 T00630045  RH  089%=      5-min Rain = 0
KPG1 090557Z 02003KT 06/05 A303 RMK A01 T00620045  RH  089%=      5-min Rain = 0
KPG1 090558Z 03004KT 06/05 A303 RMK A01 T00620045  RH  089%=      5-min Rain = 0
KPG1 090559Z 03004KT 06/04 A303 RMK A01 T00610044  RH  089%=      5-min Rain = 0

Page generated in 0.0316 seconds.